DW6912 Weather Reports


Display with metric or nautical units.
time (UTC)temp
F
wind
direction
speed
MPH
gust
MPH
rain 1hr
in
rain 24hr
in
rain mn
in
humidity
%
barometer
mb
20260905220158 76 44 0.0 5.0 0.00 0.02 0.02 68 1009.8
20260905220059 76 44 0.0 5.0 0.00 0.02 0.02 68 1009.8
20260905220002 76 44 2.0 5.0 0.00 0.02 0.02 67 1009.8
20260905215758 77 10 0.0 6.0 0.00 0.03 0.02 68 1009.8
20260905215559 77 10 1.0 8.0 0.00 0.03 0.02 67 1009.8
20260905215500 77 10 3.0 8.0 0.00 0.03 0.02 66 1009.8
20260905215400 77 11 2.0 8.0 0.00 0.03 0.02 67 1009.8
20260905215258 77 38 1.0 8.0 0.00 0.03 0.02 66 1009.8
20260905215200 77 31 3.0 8.0 0.00 0.03 0.02 67 1009.8
20260905214858 77 24 2.0 8.0 0.00 0.03 0.02 67 1009.8
20260905214758 77 60 0.0 8.0 0.00 0.03 0.02 67 1009.8
20260905214658 77 68 1.0 8.0 0.00 0.03 0.02 66 1009.9
20260905214558 77 23 6.0 6.0 0.00 0.03 0.02 66 1009.8
20260905214502 77 17 2.0 8.0 0.00 0.03 0.02 66 1009.9
20260905214358 77 66 3.0 8.0 0.00 0.03 0.02 67 1009.8
20260905214200 77 24 3.0 8.0 0.00 0.03 0.02 67 1009.8
20260905214001 77 19 0.0 8.0 0.00 0.03 0.02 67 1009.8
20260905213900 77 19 2.0 8.0 0.00 0.03 0.02 67 1009.8
20260905213758 77 19 2.0 8.0 0.00 0.03 0.02 67 1009.8
20260905213659 77 58 2.0 8.0 0.00 0.03 0.02 66 1009.8
20260905213559 77 26 5.0 8.0 0.00 0.03 0.02 66 1009.8
20260905213501 77 355 2.0 5.0 0.00 0.03 0.02 66 1009.8
20260905213359 77 355 2.0 5.0 0.00 0.03 0.02 66 1009.8
20260905213258 77 22 2.0 6.0 0.00 0.03 0.02 66 1009.9
20260905213159 77 10 3.0 6.0 0.00 0.03 0.02 67 1009.9
20260905213059 77 130 1.0 6.0 0.00 0.03 0.02 66 1009.8
20260905213002 77 130 1.0 6.0 0.00 0.03 0.02 66 1009.8
20260905212902 77 5 0.0 6.0 0.00 0.03 0.02 66 1009.8
20260905212759 78 5 2.0 6.0 0.00 0.03 0.02 65 1009.8
20260905212659 78 36 4.0 6.0 0.00 0.03 0.02 65 1009.8
20260905212600 78 360 1.0 6.0 0.00 0.03 0.02 67 1009.8
20260905212500 78 355 3.0 6.0 0.00 0.03 0.02 67 1009.8
20260905212259 78 120 2.0 8.0 0.00 0.03 0.02 67 1009.8
20260905212159 78 120 1.0 8.0 0.00 0.03 0.02 66 1009.7
20260905212001 78 120 0.0 8.0 0.00 0.03 0.02 67 1009.8
20260905211900 78 120 0.0 8.0 0.00 0.03 0.02 66 1009.7
20260905211701 78 126 0.0 8.0 0.00 0.03 0.02 65 1009.7
20260905211600 78 126 0.0 8.0 0.00 0.03 0.02 65 1009.7
20260905211500 78 55 0.0 8.0 0.00 0.03 0.02 65 1009.7
20260905211358 78 26 6.0 8.0 0.00 0.03 0.02 65 1009.7
20260905211300 78 339 2.0 4.0 0.00 0.03 0.02 65 1009.7
20260905211159 78 12 2.0 4.0 0.00 0.03 0.02 65 1009.7
20260905211059 78 61 0.0 4.0 0.00 0.03 0.02 65 1009.7
20260905210959 78 57 2.0 4.0 0.00 0.03 0.02 66 1009.7
20260905210900 78 57 2.0 5.0 0.00 0.03 0.02 65 1009.7
20260905210759 78 9 1.0 8.0 0.00 0.03 0.02 65 1009.8
20260905210700 78 11 1.0 11.0 0.00 0.03 0.02 65 1009.8
20260905210558 78 13 3.0 11.0 0.00 0.03 0.02 66 1009.8
20260905210501 78 13 1.0 11.0 0.00 0.03 0.02 65 1009.7
20260905210359 78 13 1.0 11.0 0.00 0.03 0.02 65 1009.7
20260905210259 78 15 2.0 11.0 0.00 0.03 0.02 65 1009.7
20260905210159 78 41 3.0 11.0 0.00 0.03 0.02 65 1009.7
20260905210059 78 23 0.0 11.0 0.00 0.03 0.02 65 1009.7
20260905210001 78 23 4.0 11.0 0.00 0.03 0.02 65 1009.7
20260905205858 78 5 2.0 11.0 0.00 0.03 0.02 64 1009.8
20260905205659 78 13 3.0 9.0 0.00 0.03 0.02 64 1009.8
20260905205500 78 26 3.0 9.0 0.00 0.03 0.02 66 1009.9
20260905205359 78 30 1.0 8.0 0.00 0.03 0.02 66 1009.9
20260905205258 78 44 3.0 8.0 0.00 0.03 0.02 67 1009.8
20260905205158 78 80 5.0 5.0 0.00 0.03 0.02 67 1009.9
20260905204959 77 70 3.0 5.0 0.00 0.03 0.02 68 1009.9
20260905204857 77 22 2.0 4.0 0.00 0.03 0.02 68 1009.8
20260905204759 77 15 2.0 4.0 0.00 0.03 0.02 67 1009.8
20260905204658 77 20 2.0 4.0 0.00 0.03 0.02 66 1009.8
20260905204558 77 20 0.0 4.0 0.00 0.03 0.02 67 1009.8
20260905204459 77 20 0.0 4.0 0.00 0.03 0.02 67 1009.8
20260905204358 77 20 2.0 8.0 0.00 0.03 0.02 66 1009.8
20260905204258 77 10 0.0 8.0 0.00 0.03 0.02 66 1009.8
20260905204158 77 10 0.0 8.0 0.00 0.03 0.02 66 1009.8
20260905204059 77 5 4.0 10.0 0.00 0.03 0.02 66 1009.8
20260905203859 77 18 4.0 10.0 0.00 0.03 0.02 65 1009.8
20260905203759 78 12 2.0 10.0 0.00 0.03 0.02 66 1009.9
20260905203658 78 9 3.0 10.0 0.00 0.03 0.02 67 1009.9
20260905203459 78 342 2.0 10.0 0.00 0.03 0.02 66 1009.8
20260905203358 78 36 2.0 10.0 0.00 0.03 0.02 66 1009.9
20260905203259 78 5 3.0 10.0 0.00 0.03 0.02 66 1009.9
20260905203158 78 55 4.0 10.0 0.00 0.03 0.02 66 1009.8
20260905203057 78 82 5.0 8.0 0.00 0.03 0.02 66 1009.9
20260905203000 78 27 6.0 8.0 0.00 0.03 0.02 66 1009.9
20260905202858 78 24 0.0 6.0 0.00 0.03 0.02 66 1009.8
20260905202758 78 24 0.0 6.0 0.00 0.03 0.02 67 1009.9
20260905202658 78 19 3.0 6.0 0.00 0.03 0.02 67 1009.9
20260905202558 78 16 3.0 6.0 0.00 0.03 0.02 67 1009.9
20260905202500 78 169 4.0 6.0 0.00 0.03 0.02 68 1009.9
20260905202357 78 80 1.0 6.0 0.00 0.03 0.02 67 1009.9
20260905202300 77 21 1.0 6.0 0.00 0.03 0.02 67 1009.8
20260905202158 77 13 1.0 6.0 0.00 0.03 0.02 67 1009.9
20260905202058 77 24 3.0 6.0 0.00 0.03 0.02 67 1009.9
20260905201959 77 355 3.0 5.0 0.00 0.03 0.02 67 1009.9
20260905201858 77 337 1.0 5.0 0.00 0.03 0.02 67 1009.9
20260905201758 77 348 2.0 3.0 0.00 0.03 0.02 68 1009.8
20260905201659 77 146 2.0 5.0 0.00 0.03 0.02 69 1009.9
20260905201557 77 145 1.0 5.0 0.00 0.03 0.02 68 1009.8
20260905201459 77 150 1.0 5.0 0.00 0.03 0.02 68 1009.8
20260905201359 77 144 2.0 5.0 0.00 0.03 0.02 68 1009.9
20260905201057 77 36 0.0 7.0 0.00 0.03 0.02 67 1010.0
20260905201000 77 36 1.0 7.0 0.00 0.03 0.02 67 1010.0
20260905200900 77 36 0.0 11.0 0.00 0.03 0.02 68 1010.0
20260905200758 77 100 3.0 11.0 0.00 0.03 0.02 68 1010.0
20260905200658 77 84 1.0 11.0 0.00 0.03 0.02 67 1010.0
20260905200558 77 74 2.0 11.0 0.00 0.03 0.02 67 1010.0
20260905200459 77 30 2.0 11.0 0.00 0.03 0.02 67 1010.0
20260905200359 77 30 1.0 11.0 0.00 0.03 0.02 67 1010.0
20260905200259 77 30 3.0 11.0 0.00 0.03 0.02 67 1010.0
20260905200158 77 52 3.0 11.0 0.00 0.03 0.02 67 1010.0
20260905200001 77 18 4.0 11.0 0.00 0.03 0.02 68 1010.0
20260905195700 77 5 3.0 9.0 0.00 0.03 0.02 67 1010.0
20260905195559 77 347 5.0 9.0 0.00 0.03 0.02 68 1010.0
20260905195500 77 49 6.0 9.0 0.00 0.03 0.02 68 1010.0
20260905195358 77 17 2.0 5.0 0.00 0.03 0.02 69 1010.0
20260905195300 77 23 3.0 5.0 0.00 0.03 0.02 67 1010.0
20260905195159 77 47 2.0 6.0 0.00 0.03 0.02 68 1010.0
20260905195100 77 22 2.0 6.0 0.00 0.03 0.02 69 1010.0
20260905195001 77 22 1.0 6.0 0.00 0.03 0.02 70 1010.0
20260905194859 77 22 0.0 6.0 0.00 0.03 0.02 70 1010.0
20260905194659 77 22 0.0 8.0 0.00 0.03 0.02 67 1010.0
20260905194600 77 22 0.0 8.0 0.00 0.03 0.02 68 1010.0
20260905194501 77 22 1.0 8.0 0.00 0.03 0.02 67 1010.0
20260905194359 77 22 2.0 8.0 0.00 0.03 0.02 68 1010.0
20260905194259 77 22 2.0 8.0 0.00 0.03 0.02 68 1010.0
20260905194200 77 26 6.0 8.0 0.00 0.03 0.02 68 1010.1
20260905194059 77 63 2.0 8.0 0.00 0.03 0.02 67 1010.0
20260905194000 77 14 1.0 8.0 0.00 0.03 0.02 68 1010.0
20260905193859 77 15 4.0 8.0 0.00 0.03 0.02 68 1010.1
20260905193759 77 28 3.0 8.0 0.00 0.03 0.02 67 1010.1
20260905193659 77 41 5.0 8.0 0.00 0.03 0.02 67 1010.0
20260905193558 77 5 4.0 8.0 0.00 0.03 0.02 68 1010.1
20260905193500 77 61 1.0 8.0 0.00 0.03 0.02 69 1010.0
20260905193359 77 44 4.0 8.0 0.00 0.03 0.02 70 1010.0
20260905193259 77 18 2.0 8.0 0.00 0.03 0.02 71 1010.0
20260905193000 77 360 2.0 8.0 0.00 0.03 0.02 69 1010.0
20260905192859 77 45 4.0 8.0 0.00 0.03 0.02 69 1010.0
20260905192759 77 338 3.0 5.0 0.00 0.03 0.02 70 1010.0
20260905192700 77 155 2.0 5.0 0.00 0.03 0.02 70 1010.0
20260905192559 77 37 2.0 5.0 0.00 0.03 0.02 71 1010.0
20260905192500 77 5 1.0 6.0 0.00 0.03 0.02 71 1010.1
20260905192359 77 24 1.0 6.0 0.00 0.03 0.02 71 1010.0
20260905192259 77 24 1.0 6.0 0.00 0.03 0.02 70 1010.0
20260905192159 77 24 0.0 10.0 0.00 0.03 0.02 70 1010.0
20260905192059 77 24 0.0 10.0 0.00 0.03 0.02 69 1010.0
20260905192002 77 24 0.0 10.0 0.00 0.03 0.02 69 1010.0
20260905191859 77 24 1.0 10.0 0.00 0.03 0.02 70 1010.1
20260905191659 77 22 1.0 10.0 0.00 0.03 0.02 69 1010.1
20260905191500 77 60 2.0 10.0 0.00 0.03 0.02 70 1010.0
20260905191359 77 23 4.0 10.0 0.00 0.03 0.02 70 1010.1
20260905191259 77 107 2.0 10.0 0.00 0.03 0.02 70 1010.0
20260905191159 77 54 4.0 10.0 0.00 0.03 0.02 71 1010.0
20260905191100 77 5 6.0 9.0 0.00 0.03 0.02 71 1010.0
20260905191000 77 54 3.0 9.0 0.00 0.03 0.02 71 1010.1
20260905190859 77 88 4.0 9.0 0.00 0.03 0.02 70 1010.1
20260905190659 77 27 4.0 9.0 0.00 0.03 0.02 72 1010.0
20260905190559 77 20 5.0 9.0 0.00 0.03 0.02 70 1010.1
20260905190459 77 59 4.0 9.0 0.00 0.03 0.02 72 1010.0
20260905190400 77 18 4.0 9.0 0.00 0.03 0.02 71 1010.1
20260905190259 77 355 3.0 6.0 0.00 0.03 0.02 72 1010.1
20260905190158 77 327 3.0 6.0 0.00 0.03 0.02 71 1010.2
20260905190058 77 350 5.0 6.0 0.00 0.03 0.02 70 1010.1
20260905190000 77 24 4.0 5.0 0.00 0.04 0.02 72 1010.1
20260905185759 77 36 4.0 5.0 0.00 0.04 0.02 73 1010.1
20260905185658 76 78 2.0 5.0 0.00 0.04 0.02 73 1010.1
20260905185558 76 51 1.0 4.0 0.00 0.04 0.02 73 1010.1
20260905185500 76 51 0.0 4.0 0.00 0.04 0.02 72 1010.2
20260905185358 76 51 1.0 4.0 0.00 0.04 0.02 71 1010.2
20260905185258 76 51 0.0 5.0 0.00 0.04 0.02 69 1010.2
20260905185158 76 51 0.0 5.0 0.00 0.04 0.02 70 1010.2
20260905185058 76 51 0.0 5.0 0.00 0.04 0.02 72 1010.2
20260905184958 76 53 1.0 5.0 0.00 0.04 0.02 71 1010.3
20260905184858 76 61 3.0 7.0 0.00 0.04 0.02 72 1010.3
20260905184758 76 61 2.0 7.0 0.00 0.04 0.02 71 1010.3
20260905184658 76 61 1.0 7.0 0.00 0.04 0.02 71 1010.3
20260905184500 76 69 2.0 7.0 0.00 0.04 0.02 70 1010.4
20260905184400 76 57 3.0 7.0 0.00 0.04 0.02 70 1010.4
20260905184259 77 5 3.0 7.0 0.00 0.04 0.02 69 1010.3
20260905184059 77 5 1.0 8.0 0.00 0.04 0.02 69 1010.4
20260905183858 77 68 1.0 8.0 0.00 0.04 0.02 70 1010.4
20260905183758 77 57 3.0 8.0 0.00 0.04 0.02 70 1010.4
20260905183658 77 70 6.0 8.0 0.00 0.04 0.02 70 1010.4
20260905183558 77 46 4.0 8.0 0.00 0.04 0.02 70 1010.4
20260905183458 77 355 4.0 8.0 0.00 0.04 0.02 70 1010.4
20260905183358 77 14 3.0 8.0 0.00 0.04 0.02 69 1010.4
20260905183257 78 5 4.0 8.0 0.00 0.04 0.02 70 1010.4
20260905183158 78 340 3.0 8.0 0.00 0.04 0.02 70 1010.4
20260905183058 78 34 4.0 6.0 0.00 0.04 0.02 70 1010.3
20260905182858 78 28 1.0 6.0 0.00 0.04 0.02 71 1010.3
20260905182759 77 28 4.0 7.0 0.00 0.04 0.02 70 1010.3
20260905182559 78 344 1.0 7.0 0.00 0.04 0.02 70 1010.3
20260905182358 77 24 4.0 8.0 0.00 0.04 0.02 71 1010.4
20260905182258 77 70 3.0 8.0 0.00 0.04 0.02 72 1010.5
20260905182057 77 22 3.0 8.0 0.00 0.04 0.02 71 1010.5
20260905181959 77 19 1.0 8.0 0.00 0.04 0.02 70 1010.4
20260905181858 78 19 0.0 8.0 0.00 0.04 0.02 69 1010.5
20260905181757 78 59 3.0 8.0 0.00 0.04 0.02 69 1010.5
20260905181658 78 79 2.0 8.0 0.00 0.04 0.02 70 1010.5
20260905181558 78 55 3.0 8.0 0.00 0.04 0.02 70 1010.5
20260905181300 77 53 3.0 8.0 0.00 0.04 0.02 72 1010.5
20260905181158 77 38 3.0 8.0 0.00 0.04 0.02 72 1010.6
20260905181058 77 29 3.0 8.0 0.00 0.04 0.02 71 1010.5
20260905181000 77 16 5.0 8.0 0.00 0.04 0.02 71 1010.5
20260905180859 77 56 3.0 10.0 0.00 0.04 0.02 70 1010.5
20260905180758 77 17 2.0 10.0 0.00 0.04 0.02 69 1010.5
20260905180558 78 37 5.0 10.0 0.00 0.04 0.02 70 1010.5
20260905180158 78 65 4.0 10.0 0.00 0.04 0.02 69 1010.6
20260905180005 78 51 4.0 10.0 0.00 0.04 0.02 70 1010.6
20260905175900 78 69 5.0 9.0 0.00 0.04 0.02 68 1010.6
20260905175800 78 37 5.0 9.0 0.00 0.04 0.02 69 1010.6
20260905175659 78 53 5.0 9.0 0.00 0.04 0.02 71 1010.6
20260905175559 78 17 4.0 9.0 0.00 0.04 0.02 69 1010.6
20260905175501 78 34 5.0 9.0 0.00 0.04 0.02 71 1010.6
20260905175359 78 63 4.0 9.0 0.00 0.04 0.02 70 1010.6
20260905175259 78 73 3.0 9.0 0.00 0.04 0.02 69 1010.6
20260905175200 78 348 2.0 9.0 0.00 0.04 0.02 69 1010.6
20260905175100 78 360 4.0 9.0 0.00 0.04 0.02 69 1010.6
20260905175002 78 360 3.0 9.0 0.00 0.04 0.02 68 1010.6
20260905174800 77 112 4.0 9.0 0.00 0.04 0.02 71 1010.6
20260905174700 77 58 0.0 6.0 0.00 0.04 0.02 70 1010.6
20260905174600 77 59 2.0 6.0 0.00 0.04 0.02 69 1010.6
20260905174502 77 9 3.0 8.0 0.00 0.04 0.02 72 1010.6
20260905174358 77 360 2.0 8.0 0.00 0.04 0.02 70 1010.6
20260905174301 77 355 3.0 8.0 0.00 0.04 0.02 72 1010.6
20260905174201 77 78 1.0 8.0 0.00 0.04 0.02 71 1010.5
20260905174059 77 78 1.0 8.0 0.00 0.04 0.02 69 1010.6
20260905173858 77 42 4.0 8.0 0.00 0.04 0.02 68 1010.6
20260905173800 77 55 3.0 8.0 0.00 0.04 0.02 69 1010.7
20260905173659 77 58 3.0 8.0 0.00 0.04 0.02 69 1010.6
20260905173259 78 22 5.0 6.0 0.00 0.04 0.02 68 1010.6
20260905173159 78 74 2.0 6.0 0.00 0.04 0.02 69 1010.6
20260905173058 78 66 3.0 6.0 0.00 0.04 0.02 68 1010.6
20260905173000 79 109 6.0 6.0 0.00 0.04 0.02 68 1010.6
20260905172858 79 65 3.0 6.0 0.00 0.04 0.02 67 1010.6
20260905172800 79 335 2.0 6.0 0.00 0.04 0.02 67 1010.6
20260905172659 79 91 4.0 6.0 0.00 0.04 0.02 67 1010.6
20260905172559 79 58 4.0 7.0 0.00 0.04 0.02 70 1010.6
20260905172359 79 80 3.0 5.0 0.00 0.04 0.02 69 1010.7
20260905172259 79 145 1.0 5.0 0.00 0.04 0.02 69 1010.7
20260905172159 79 102 0.0 4.0 0.00 0.04 0.02 71 1010.7
20260905172100 79 102 2.0 4.0 0.00 0.04 0.02 69 1010.7
20260905172001 79 78 0.0 8.0 0.00 0.04 0.02 68 1010.7
20260905171759 78 360 0.0 8.0 0.00 0.04 0.02 69 1010.7
20260905171700 78 355 1.0 8.0 0.00 0.04 0.02 70 1010.8
20260905171559 78 355 0.0 8.0 0.00 0.04 0.02 70 1010.9
20260905171502 78 355 1.0 8.0 0.00 0.04 0.02 73 1010.9
20260905171258 78 355 1.0 8.0 0.00 0.04 0.02 70 1011.0
20260905171159 78 343 1.0 8.0 0.00 0.04 0.02 69 1011.0
20260905171100 78 348 1.0 8.0 0.00 0.04 0.02 68 1011.1
20260905171000 78 64 2.0 8.0 0.00 0.04 0.02 68 1011.1
20260905170858 78 329 0.0 8.0 0.00 0.04 0.02 69 1011.1
20260905170759 78 329 2.0 8.0 0.00 0.04 0.02 70 1011.1
20260905170659 78 51 4.0 8.0 0.00 0.04 0.02 72 1011.1
20260905170500 78 35 4.0 9.0 0.00 0.04 0.02 69 1011.2
20260905170401 78 21 4.0 9.0 0.00 0.04 0.02 71 1011.2
20260905170200 78 65 2.0 9.0 0.00 0.04 0.02 71 1011.2
20260905170059 78 80 3.0 9.0 0.00 0.04 0.02 70 1011.2
20260905165959 78 39 3.0 9.0 0.00 0.04 0.02 69 1011.1
20260905165859 78 57 2.0 9.0 0.00 0.04 0.02 68 1011.1
20260905165559 78 68 5.0 9.0 0.00 0.04 0.02 70 1011.1
20260905165400 78 328 2.0 9.0 0.00 0.04 0.02 72 1011.2
20260905165256 78 309 2.0 9.0 0.00 0.04 0.02 72 1011.1
20260905165158 78 309 1.0 9.0 0.00 0.04 0.02 73 1011.2
20260905165058 78 303 0.0 9.0 0.00 0.04 0.02 73 1011.1
20260905165001 78 27 2.0 9.0 0.00 0.04 0.02 71 1011.1
20260905164758 78 308 5.0 8.0 0.00 0.04 0.02 69 1011.1
20260905164658 78 39 3.0 8.0 0.00 0.04 0.02 69 1011.2
20260905164558 78 26 5.0 9.0 0.00 0.04 0.02 71 1011.1
20260905164358 78 309 3.0 9.0 0.00 0.04 0.02 70 1011.2
20260905164300 78 319 3.0 9.0 0.00 0.04 0.02 71 1011.2
20260905164157 78 31 5.0 9.0 0.01 0.04 0.02 71 1011.2
20260905164059 78 52 2.0 9.0 0.01 0.04 0.02 69 1011.2
20260905163959 78 29 3.0 9.0 0.01 0.04 0.02 71 1011.2
20260905163859 78 9 5.0 9.0 0.01 0.04 0.02 72 1011.2
20260905163758 78 157 1.0 9.0 0.01 0.04 0.02 73 1011.2
20260905163701 78 103 4.0 9.0 0.01 0.04 0.02 75 1011.2
20260905163501 77 57 3.0 7.0 0.01 0.04 0.02 72 1011.2
20260905163359 77 153 2.0 7.0 0.01 0.04 0.02 72 1011.2
20260905163259 77 150 0.0 7.0 0.01 0.04 0.02 74 1011.2
20260905163158 77 42 5.0 6.0 0.01 0.04 0.02 73 1011.2
20260905163058 77 128 1.0 6.0 0.01 0.04 0.02 72 1011.3
20260905163003 77 88 2.0 6.0 0.01 0.04 0.02 73 1011.3
20260905162858 77 35 2.0 5.0 0.01 0.04 0.02 71 1011.3
20260905162758 77 35 1.0 6.0 0.01 0.04 0.02 74 1011.4
20260905162700 77 35 2.0 6.0 0.01 0.04 0.02 73 1011.3
20260905162557 77 35 2.0 6.0 0.01 0.04 0.02 74 1011.4
20260905162459 77 35 1.0 6.0 0.01 0.04 0.02 74 1011.3
20260905162358 77 49 4.0 6.0 0.01 0.04 0.02 74 1011.3
20260905162258 77 13 5.0 6.0 0.01 0.04 0.02 75 1011.4
20260905162158 77 355 0.0 6.0 0.01 0.04 0.02 74 1011.4
20260905162058 77 355 4.0 6.0 0.01 0.04 0.02 72 1011.4
20260905161959 77 40 3.0 6.0 0.01 0.04 0.02 72 1011.4
20260905161858 77 24 3.0 6.0 0.01 0.04 0.02 70 1011.4
20260905161758 77 55 2.0 5.0 0.01 0.04 0.02 71 1011.4
20260905161658 77 59 2.0 4.0 0.01 0.04 0.02 72 1011.5
20260905161559 77 59 1.0 4.0 0.01 0.04 0.02 73 1011.5
20260905161359 77 59 0.0 4.0 0.01 0.04 0.02 76 1011.6
20260905161258 77 59 1.0 4.0 0.01 0.04 0.02 75 1011.6
20260905161159 77 63 1.0 4.0 0.01 0.04 0.02 76 1011.7
20260905161058 77 63 0.0 4.0 0.01 0.04 0.02 75 1011.6
20260905161000 76 63 0.0 4.0 0.01 0.04 0.02 74 1011.6
20260905160859 76 63 0.0 4.0 0.01 0.04 0.02 74 1011.6
20260905160802 76 63 3.0 4.0 0.01 0.04 0.02 75 1011.6
20260905160658 76 66 2.0 4.0 0.01 0.04 0.02 77 1011.6
20260905160459 76 26 0.0 1.0 0.01 0.04 0.02 77 1011.6
20260905160358 76 26 0.0 4.0 0.01 0.04 0.02 76 1011.6
20260905160258 76 26 0.0 4.0 0.01 0.04 0.02 77 1011.6
20260905160159 76 26 0.0 4.0 0.01 0.04 0.02 81 1011.7
20260905160100 76 26 0.0 4.0 0.01 0.04 0.02 78 1011.6
20260905155858 76 26 0.0 4.0 0.01 0.04 0.02 77 1011.7
20260905155701 76 26 0.0 4.0 0.01 0.04 0.02 74 1011.7
20260905155558 76 26 0.0 6.0 0.01 0.04 0.02 75 1011.7
20260905155500 76 26 2.0 6.0 0.01 0.04 0.02 77 1011.7
20260905155400 76 100 0.0 6.0 0.01 0.04 0.02 77 1011.7
20260905155258 76 112 1.0 11.0 0.01 0.04 0.02 75 1011.7
20260905155157 76 112 1.0 11.0 0.01 0.04 0.02 73 1011.7
20260905155057 76 73 3.0 11.0 0.01 0.04 0.02 73 1011.7
20260905154959 76 136 1.0 11.0 0.01 0.04 0.02 73 1011.7
20260905154858 76 69 2.0 11.0 0.01 0.04 0.02 73 1011.7
20260905154758 76 131 1.0 11.0 0.01 0.04 0.02 74 1011.7
20260905154658 76 32 2.0 11.0 0.01 0.04 0.02 72 1011.7
20260905154557 76 69 3.0 11.0 0.01 0.04 0.02 72 1011.7
20260905154500 76 22 2.0 11.0 0.01 0.04 0.02 71 1011.7
20260905154259 76 28 6.0 11.0 0.01 0.04 0.02 72 1011.7
20260905154158 76 77 4.0 7.0 0.00 0.03 0.01 74 1011.8
20260905154059 76 5 0.0 6.0 0.00 0.03 0.01 75 1011.7
20260905154000 76 47 1.0 9.0 0.00 0.03 0.01 73 1011.7
20260905153800 76 355 2.0 9.0 0.00 0.03 0.01 73 1011.7
20260905153659 75 44 3.0 9.0 0.00 0.03 0.01 75 1011.7
20260905153559 75 286 1.0 9.0 0.00 0.03 0.01 74 1011.8
20260905153459 75 17 4.0 9.0 0.00 0.03 0.01 76 1011.7
20260905153358 75 53 3.0 9.0 0.00 0.03 0.01 75 1011.7
20260905153200 75 13 3.0 9.0 0.00 0.03 0.01 74 1011.7
20260905153059 75 30 4.0 9.0 0.00 0.03 0.01 74 1011.8
20260905152559 75 355 2.0 5.0 0.00 0.03 0.01 77 1011.7
20260905152459 74 355 5.0 5.0 0.00 0.03 0.01 76 1011.6
20260905152259 75 308 2.0 5.0 0.00 0.03 0.01 75 1011.7
20260905152158 75 310 3.0 5.0 0.00 0.03 0.01 77 1011.7
20260905152000 75 319 1.0 3.0 0.00 0.03 0.01 77 1011.7
20260905151800 75 321 2.0 4.0 0.00 0.03 0.01 76 1011.7
20260905151658 75 324 1.0 5.0 0.00 0.03 0.01 76 1011.7
20260905151558 76 76 2.0 5.0 0.00 0.03 0.01 77 1011.6
20260905151501 76 59 3.0 5.0 0.00 0.03 0.01 78 1011.7
20260905151358 76 59 0.0 5.0 0.00 0.03 0.01 78 1011.7
20260905151300 76 59 0.0 5.0 0.00 0.03 0.01 78 1011.7
20260905151158 76 59 0.0 5.0 0.00 0.03 0.01 79 1011.7
20260905151057 76 59 0.0 5.0 0.00 0.03 0.01 78 1011.7
20260905151001 76 59 1.0 5.0 0.00 0.03 0.01 78 1011.7
20260905150859 76 60 3.0 5.0 0.00 0.03 0.01 77 1011.7
20260905150759 75 48 4.0 5.0 0.00 0.03 0.01 77 1011.7
20260905150559 75 49 1.0 5.0 0.00 0.03 0.01 78 1011.7
20260905150357 75 98 2.0 6.0 0.00 0.03 0.01 79 1011.7
20260905150257 75 22 2.0 6.0 0.00 0.03 0.01 80 1011.7
20260905150158 75 157 2.0 6.0 0.00 0.03 0.01 77 1011.7
20260905150058 75 88 2.0 6.0 0.00 0.03 0.01 77 1011.7
20260905145858 75 55 2.0 6.0 0.00 0.03 0.01 77 1011.7
20260905145757 75 48 3.0 6.0 0.00 0.03 0.01 76 1011.8
20260905145559 75 139 3.0 6.0 0.00 0.03 0.01 76 1011.8
20260905145459 76 67 4.0 5.0 0.00 0.03 0.01 77 1011.7
20260905145258 76 23 2.0 5.0 0.00 0.03 0.01 77 1011.7
20260905145159 76 55 2.0 5.0 0.00 0.03 0.01 77 1011.6
20260905145000 76 5 0.0 5.0 0.00 0.03 0.01 77 1011.6
20260905144858 76 83 3.0 5.0 0.00 0.03 0.01 76 1011.6
20260905144759 75 13 0.0 5.0 0.00 0.03 0.01 77 1011.5
20260905144658 75 19 3.0 5.0 0.00 0.03 0.01 77 1011.6
20260905144558 75 47 3.0 8.0 0.00 0.03 0.01 77 1011.5
20260905144500 75 49 2.0 8.0 0.00 0.03 0.01 78 1011.5
20260905144358 75 96 3.0 8.0 0.00 0.03 0.01 78 1011.5
20260905144258 75 15 1.0 8.0 0.00 0.03 0.01 77 1011.5
20260905144159 75 17 2.0 8.0 0.00 0.03 0.01 77 1011.5
20260905144058 75 32 3.0 8.0 0.00 0.03 0.01 77 1011.5
20260905144000 75 308 2.0 9.0 0.00 0.03 0.01 77 1011.5
20260905143858 75 12 3.0 9.0 0.00 0.03 0.01 78 1011.6
20260905143758 75 12 4.0 9.0 0.00 0.03 0.01 76 1011.6
20260905143658 75 42 0.0 9.0 0.00 0.03 0.01 77 1011.7
20260905143559 75 350 3.0 9.0 0.00 0.03 0.01 78 1011.7
20260905143358 75 27 4.0 9.0 0.00 0.03 0.01 79 1011.6
20260905143158 75 5 5.0 9.0 0.00 0.03 0.01 78 1011.6
20260905143058 75 32 4.0 9.0 0.00 0.03 0.01 79 1011.6
20260905143001 75 13 2.0 6.0 0.00 0.03 0.01 78 1011.6
20260905142858 75 53 2.0 6.0 0.00 0.03 0.01 78 1011.6
20260905142759 75 26 2.0 6.0 0.00 0.03 0.01 78 1011.4
20260905142658 74 14 4.0 6.0 0.00 0.03 0.01 79 1011.4
20260905142558 74 86 2.0 6.0 0.00 0.03 0.01 80 1011.4
20260905142459 74 28 2.0 6.0 0.00 0.03 0.01 79 1011.4
20260905142359 74 11 2.0 6.0 0.00 0.03 0.01 79 1011.3
20260905142258 74 12 3.0 6.0 0.00 0.03 0.01 79 1011.3
20260905142158 74 340 4.0 6.0 0.00 0.03 0.01 78 1011.4
20260905142100 74 326 1.0 6.0 0.00 0.03 0.01 78 1011.3
20260905141959 74 355 5.0 6.0 0.00 0.03 0.01 79 1011.3
20260905141858 74 339 4.0 6.0 0.00 0.03 0.01 79 1011.3
20260905141758 74 261 2.0 6.0 0.00 0.03 0.01 79 1011.3
20260905141658 74 260 1.0 6.0 0.00 0.03 0.01 80 1011.3
20260905141558 74 331 3.0 6.0 0.00 0.03 0.01 79 1011.3
20260905141500 74 342 0.0 6.0 0.00 0.03 0.01 79 1011.2
20260905141359 74 355 0.0 6.0 0.00 0.03 0.01 79 1011.3
20260905141158 75 19 5.0 5.0 0.00 0.03 0.01 79 1011.2
20260905141059 75 39 3.0 4.0 0.00 0.03 0.01 79 1011.2
20260905140959 74 92 0.0 4.0 0.00 0.03 0.01 79 1011.2
20260905140858 74 57 0.0 4.0 0.00 0.03 0.01 79 1011.2
20260905140659 74 140 1.0 4.0 0.00 0.03 0.01 80 1011.1
20260905140600 74 57 0.0 4.0 0.00 0.03 0.01 79 1011.1
20260905140501 74 57 0.0 4.0 0.00 0.03 0.01 80 1011.1
20260905140359 74 57 3.0 4.0 0.00 0.03 0.01 81 1011.1
20260905140258 74 43 2.0 4.0 0.00 0.03 0.01 82 1011.1
20260905140159 74 102 0.0 4.0 0.00 0.03 0.01 82 1011.1
20260905140058 74 103 1.0 4.0 0.00 0.03 0.01 83 1011.1
20260905140001 74 48 0.0 5.0 0.00 0.03 0.01 82 1011.1
20260905135858 74 48 0.0 5.0 0.00 0.03 0.01 82 1011.1
20260905135758 74 48 1.0 5.0 0.00 0.03 0.01 81 1011.1
20260905135658 74 155 1.0 5.0 0.00 0.03 0.01 82 1011.1
20260905135459 74 16 0.0 5.0 0.00 0.03 0.01 82 1011.1
20260905135258 74 16 1.0 5.0 0.00 0.03 0.01 81 1011.1
20260905135159 74 16 1.0 5.0 0.00 0.03 0.01 80 1011.1
20260905135000 74 54 2.0 4.0 0.00 0.03 0.01 81 1011.1
20260905134859 74 54 2.0 4.0 0.00 0.03 0.01 81 1011.2
20260905134757 74 50 2.0 4.0 0.00 0.03 0.01 82 1011.2
20260905134658 74 59 2.0 3.0 0.00 0.03 0.01 84 1011.1
20260905134558 74 89 0.0 1.0 0.00 0.03 0.01 84 1011.1
20260905134502 73 89 0.0 1.0 0.00 0.03 0.01 83 1011.2
20260905134259 73 89 0.0 2.0 0.00 0.03 0.01 83 1011.2
20260905134157 73 89 0.0 4.0 0.00 0.03 0.01 82 1011.3
20260905134059 73 89 0.0 4.0 0.00 0.03 0.01 82 1011.4
20260905134000 73 89 1.0 4.0 0.00 0.03 0.01 83 1011.3
20260905133758 73 89 0.0 4.0 0.00 0.03 0.01 83 1011.4
20260905133658 73 89 0.0 4.0 0.00 0.03 0.01 83 1011.4
20260905133559 73 89 0.0 4.0 0.00 0.03 0.01 83 1011.4
20260905133500 73 88 1.0 4.0 0.00 0.03 0.01 83 1011.4
20260905133358 73 87 1.0 4.0 0.00 0.03 0.01 83 1011.4
20260905133157 73 141 1.0 3.0 0.00 0.03 0.01 84 1011.5
20260905133058 73 141 1.0 3.0 0.00 0.03 0.01 85 1011.4
20260905133000 73 93 0.0 3.0 0.00 0.03 0.01 85 1011.4
20260905132758 72 103 0.0 2.0 0.00 0.03 0.01 84 1011.4
20260905132659 72 103 0.0 2.0 0.00 0.03 0.01 83 1011.4
20260905132558 72 103 1.0 2.0 0.00 0.03 0.01 84 1011.4
20260905132358 72 103 0.0 2.0 0.00 0.03 0.01 84 1011.5
20260905132258 72 103 0.0 2.0 0.00 0.03 0.01 85 1011.4
20260905132157 72 103 0.0 2.0 0.00 0.03 0.01 84 1011.4
20260905132058 72 103 0.0 2.0 0.00 0.03 0.01 85 1011.5
20260905131959 72 103 0.0 2.0 0.00 0.03 0.01 85 1011.6
20260905131858 72 103 0.0 2.0 0.00 0.03 0.01 85 1011.6
20260905131758 72 103 0.0 2.0 0.00 0.03 0.01 85 1011.5
20260905131702 72 103 0.0 2.0 0.00 0.03 0.01 85 1011.5
20260905131557 72 103 0.0 2.0 0.00 0.03 0.01 85 1011.5
20260905131359 72 103 0.0 2.0 0.00 0.03 0.01 85 1011.6
20260905131259 72 103 0.0 2.0 0.00 0.03 0.01 84 1011.6
20260905131158 72 103 0.0 2.0 0.00 0.03 0.01 85 1011.5
20260905131058 72 103 0.0 2.0 0.00 0.03 0.01 86 1011.5
20260905130959 72 103 0.0 2.0 0.00 0.03 0.01 86 1011.5
20260905130858 72 103 0.0 2.0 0.00 0.03 0.01 86 1011.5
20260905130800 72 103 0.0 2.0 0.00 0.03 0.01 86 1011.5
20260905130559 72 103 0.0 2.0 0.00 0.03 0.01 85 1011.4
20260905130459 72 103 0.0 2.0 0.00 0.03 0.01 86 1011.3
20260905130258 72 103 0.0 2.0 0.00 0.03 0.01 85 1011.3
20260905130158 72 103 2.0 2.0 0.00 0.03 0.01 87 1011.3
20260905130058 72 103 0.0 2.0 0.00 0.03 0.01 86 1011.4
20260905130000 72 103 0.0 2.0 0.00 0.03 0.01 86 1011.3
20260905125858 72 103 0.0 2.0 0.00 0.03 0.01 86 1011.3
20260905125759 72 103 2.0 2.0 0.00 0.03 0.01 87 1011.3
20260905125700 72 103 0.0 2.0 0.00 0.03 0.01 86 1011.3
20260905125559 72 103 0.0 2.0 0.00 0.03 0.01 85 1011.3
20260905125459 72 103 0.0 2.0 0.00 0.03 0.01 85 1011.4
20260905125359 72 103 0.0 3.0 0.00 0.03 0.01 86 1011.4
20260905125258 72 81 0.0 4.0 0.00 0.03 0.01 85 1011.4
20260905125200 72 81 1.0 4.0 0.00 0.03 0.01 85 1011.5
20260905125058 72 81 0.0 4.0 0.00 0.03 0.01 85 1011.3
20260905125000 72 81 1.0 4.0 0.00 0.03 0.01 85 1011.4
20260905124857 72 81 1.0 4.0 0.00 0.03 0.01 85 1011.4
20260905124758 72 81 0.0 4.0 0.00 0.03 0.01 85 1011.3
20260905124559 72 81 0.0 4.0 0.00 0.03 0.01 85 1011.3
20260905124502 72 81 1.0 4.0 0.00 0.03 0.01 85 1011.3
20260905124358 72 46 1.0 4.0 0.00 0.03 0.01 86 1011.2
20260905124158 72 317 1.0 4.0 0.00 0.03 0.01 85 1011.1
20260905124057 72 316 2.0 4.0 0.00 0.03 0.01 86 1011.1
20260905124000 71 75 2.0 3.0 0.00 0.03 0.01 86 1011.2
20260905123858 71 75 2.0 2.0 0.00 0.03 0.01 87 1011.1
20260905123759 71 62 0.0 1.0 0.00 0.03 0.01 87 1011.1
20260905123658 71 62 0.0 1.0 0.00 0.03 0.01 87 1011.1
20260905123559 71 62 0.0 1.0 0.00 0.03 0.01 88 1011.1
20260905123459 71 62 0.0 1.0 0.00 0.03 0.01 89 1011.1
20260905123258 71 62 0.0 1.0 0.00 0.03 0.01 90 1011.1
20260905123158 71 62 0.0 1.0 0.00 0.03 0.01 90 1011.1
20260905123057 71 62 0.0 1.0 0.00 0.03 0.01 89 1011.1
20260905123001 71 62 0.0 1.0 0.00 0.03 0.01 88 1011.1
20260905122757 71 62 0.0 2.0 0.00 0.03 0.01 90 1011.1
20260905122557 71 62 0.0 2.0 0.00 0.03 0.01 89 1011.1
20260905122501 71 62 0.0 2.0 0.00 0.03 0.01 89 1011.1
20260905122357 71 62 0.0 2.0 0.00 0.03 0.01 89 1011.1
20260905122258 70 62 0.0 2.0 0.00 0.03 0.01 90 1011.1
20260905122157 70 62 0.0 2.0 0.00 0.03 0.01 89 1011.1
20260905122058 70 62 0.0 2.0 0.00 0.03 0.01 90 1011.0
20260905122000 70 62 0.0 2.0 0.00 0.03 0.01 90 1011.0
20260905121859 70 62 0.0 2.0 0.00 0.03 0.01 91 1011.1
20260905121758 70 62 2.0 2.0 0.00 0.03 0.01 92 1011.0
20260905121658 70 140 0.0 0.0 0.00 0.03 0.01 93 1011.1
20260905121558 70 140 0.0 0.0 0.00 0.03 0.01 93 1011.1
20260905121459 70 140 0.0 0.0 0.00 0.03 0.01 92 1011.1
20260905121358 70 140 0.0 0.0 0.00 0.03 0.01 92 1011.1
20260905121258 70 140 0.0 0.0 0.00 0.03 0.01 92 1011.1
20260905121158 70 140 0.0 0.0 0.00 0.03 0.01 92 1011.1
20260905121058 70 140 0.0 0.0 0.00 0.03 0.01 92 1011.1
20260905120959 70 140 0.0 0.0 0.00 0.03 0.01 92 1011.1
20260905120857 70 140 0.0 0.0 0.00 0.03 0.01 92 1011.1
20260905120758 70 140 0.0 0.0 0.00 0.03 0.01 92 1011.1
20260905120659 70 140 0.0 0.0 0.00 0.03 0.01 92 1011.1
20260905120558 70 140 0.0 0.0 0.00 0.03 0.01 92 1011.1
20260905120459 70 140 0.0 0.0 0.00 0.03 0.01 92 1011.2
20260905120358 70 140 0.0 0.0 0.00 0.03 0.01 92 1011.1
20260905120257 70 140 0.0 0.0 0.00 0.03 0.01 92 1011.1
20260905120159 70 140 0.0 0.0 0.00 0.03 0.01 93 1011.2
20260905120058 70 140 0.0 0.0 0.00 0.03 0.01 93 1011.2
20260905115959 70 140 0.0 0.0 0.00 0.03 0.01 93 1011.2
20260905115858 70 140 0.0 0.0 0.00 0.03 0.01 92 1011.2
20260905115759 70 140 0.0 0.0 0.00 0.03 0.01 93 1011.2
20260905115659 70 140 0.0 0.0 0.00 0.03 0.01 93 1011.2
20260905115558 70 140 0.0 0.0 0.00 0.03 0.01 93 1011.2
20260905115459 70 140 0.0 0.0 0.00 0.03 0.01 93 1011.1
20260905115358 70 140 0.0 0.0 0.00 0.03 0.01 94 1011.1
20260905115257 70 140 0.0 0.0 0.00 0.03 0.01 94 1011.1
20260905115159 70 140 0.0 0.0 0.00 0.03 0.01 94 1011.1
20260905115059 70 140 0.0 0.0 0.00 0.03 0.01 94 1011.1
20260905114958 70 140 0.0 0.0 0.00 0.03 0.01 94 1011.0
20260905114859 70 140 0.0 0.0 0.00 0.03 0.01 93 1011.0
20260905114757 70 140 0.0 0.0 0.00 0.03 0.01 93 1011.0
20260905114657 70 140 0.0 0.0 0.00 0.03 0.01 93 1011.1
20260905114559 70 140 0.0 0.0 0.00 0.03 0.01 93 1011.1
20260905114500 70 140 0.0 0.0 0.00 0.03 0.01 93 1011.0
20260905114358 70 140 0.0 0.0 0.00 0.03 0.01 93 1011.1
20260905114258 70 140 0.0 0.0 0.00 0.03 0.01 94 1011.1
20260905114158 70 140 0.0 0.0 0.00 0.03 0.01 94 1011.0
20260905114059 70 140 0.0 0.0 0.00 0.03 0.01 93 1011.0
20260905114000 70 140 0.0 0.0 0.00 0.03 0.01 93 1011.0
20260905113859 70 140 0.0 0.0 0.00 0.03 0.01 93 1011.0
20260905113759 69 140 0.0 0.0 0.00 0.03 0.01 93 1011.0
20260905113700 69 140 0.0 0.0 0.00 0.03 0.01 93 1010.9
20260905113558 69 140 0.0 0.0 0.00 0.03 0.01 93 1010.9
20260905113500 69 140 0.0 1.0 0.00 0.03 0.01 93 1010.9
20260905113358 69 140 0.0 1.0 0.00 0.03 0.01 93 1010.9
20260905113257 69 140 0.0 1.0 0.00 0.03 0.01 93 1010.9
20260905113157 69 140 0.0 1.0 0.00 0.03 0.01 94 1010.9
20260905113058 69 140 0.0 1.0 0.00 0.03 0.01 94 1010.8
20260905113000 69 140 0.0 1.0 0.00 0.03 0.01 94 1010.8
20260905112858 69 140 0.0 1.0 0.00 0.03 0.01 94 1010.7
20260905112757 69 140 0.0 1.0 0.00 0.03 0.01 94 1010.7
20260905112658 69 140 0.0 1.0 0.00 0.03 0.01 94 1010.7
20260905112557 69 140 0.0 1.0 0.00 0.03 0.01 93 1010.7
20260905112459 69 140 0.0 1.0 0.00 0.03 0.01 93 1010.7
20260905112358 69 140 0.0 1.0 0.00 0.03 0.01 93 1010.8
20260905112257 69 140 0.0 0.0 0.00 0.03 0.01 93 1010.8
20260905112158 69 140 0.0 0.0 0.00 0.03 0.01 93 1010.8
20260905112058 69 140 0.0 0.0 0.00 0.03 0.01 93 1010.8
20260905111959 69 140 0.0 0.0 0.00 0.03 0.01 93 1010.8
20260905111858 69 140 0.0 0.0 0.00 0.03 0.01 92 1010.8
20260905111558 69 140 0.0 0.0 0.00 0.03 0.01 92 1010.8
20260905111458 69 140 0.0 0.0 0.00 0.03 0.01 92 1010.7
20260905111358 69 140 0.0 0.0 0.00 0.03 0.01 92 1010.7
20260905111258 69 140 0.0 0.0 0.00 0.03 0.01 92 1010.7
20260905111158 69 140 0.0 2.0 0.00 0.03 0.01 92 1010.8
20260905111057 69 140 0.0 3.0 0.00 0.03 0.01 92 1010.8
20260905110959 69 140 0.0 3.0 0.00 0.03 0.01 92 1010.8
20260905110859 69 140 0.0 3.0 0.00 0.03 0.01 92 1010.7
20260905110759 69 140 0.0 3.0 0.00 0.03 0.01 92 1010.7
20260905110658 69 140 0.0 3.0 0.00 0.03 0.01 92 1010.7
20260905110558 69 140 0.0 3.0 0.00 0.03 0.01 92 1010.7
20260905110459 69 140 0.0 3.0 0.00 0.03 0.01 92 1010.7
20260905110358 69 140 0.0 3.0 0.00 0.03 0.01 92 1010.7
20260905110158 69 140 2.0 3.0 0.00 0.03 0.01 92 1010.7
20260905110057 69 90 0.0 0.0 0.00 0.03 0.01 93 1010.7
20260905105959 69 90 0.0 0.0 0.00 0.03 0.01 93 1010.7
20260905105857 69 90 0.0 0.0 0.00 0.03 0.01 93 1010.7
20260905105758 69 90 0.0 0.0 0.00 0.03 0.01 92 1010.7
20260905105657 69 90 0.0 0.0 0.00 0.03 0.01 92 1010.7
20260905105557 69 90 0.0 0.0 0.00 0.03 0.01 92 1010.7
20260905105357 70 90 0.0 0.0 0.00 0.03 0.01 92 1010.8
20260905105257 70 90 0.0 0.0 0.00 0.03 0.01 92 1010.8
20260905105157 70 90 0.0 0.0 0.00 0.03 0.01 92 1010.7
20260905105057 70 90 0.0 0.0 0.00 0.03 0.01 92 1010.7
20260905104958 70 90 0.0 0.0 0.01 0.03 0.01 93 1010.6
20260905104858 70 90 0.0 0.0 0.01 0.03 0.01 92 1010.7
20260905104657 70 90 0.0 0.0 0.01 0.03 0.01 92 1010.6
20260905104557 70 90 0.0 0.0 0.01 0.03 0.01 92 1010.6
20260905104459 70 90 0.0 0.0 0.01 0.03 0.01 92 1010.6
20260905104357 70 90 0.0 0.0 0.01 0.03 0.01 92 1010.5
20260905104158 70 90 0.0 0.0 0.01 0.03 0.01 92 1010.4
20260905104058 70 90 0.0 0.0 0.01 0.03 0.01 92 1010.4
20260905103958 70 90 0.0 0.0 0.01 0.03 0.01 92 1010.4
20260905103857 70 90 0.0 0.0 0.01 0.03 0.01 92 1010.3
20260905103757 70 90 0.0 0.0 0.01 0.03 0.01 92 1010.4
20260905103658 70 90 0.0 0.0 0.01 0.03 0.01 92 1010.4
20260905103500 70 90 0.0 0.0 0.01 0.03 0.01 92 1010.3
20260905103358 70 90 0.0 0.0 0.01 0.03 0.01 91 1010.3
20260905103257 70 90 0.0 0.0 0.01 0.03 0.01 91 1010.3
20260905103157 70 90 0.0 2.0 0.01 0.03 0.01 91 1010.3
20260905103058 70 90 0.0 2.0 0.01 0.03 0.01 90 1010.3
20260905102958 70 90 0.0 2.0 0.01 0.03 0.01 90 1010.3
20260905102857 70 90 0.0 2.0 0.01 0.03 0.01 90 1010.2
20260905102758 70 90 0.0 3.0 0.01 0.03 0.01 90 1010.2
20260905102657 70 90 0.0 3.0 0.01 0.03 0.01 90 1010.2
20260905102459 70 90 0.0 3.0 0.01 0.03 0.01 89 1010.1
20260905102356 70 90 0.0 3.0 0.01 0.03 0.01 88 1010.2
20260905102258 70 90 1.0 3.0 0.01 0.03 0.01 88 1010.2
20260905102157 70 90 1.0 3.0 0.01 0.03 0.01 88 1010.2
20260905102057 70 90 1.0 3.0 0.01 0.03 0.01 88 1010.2
20260905101958 70 90 2.0 3.0 0.01 0.03 0.01 88 1010.2
20260905101857 70 90 0.0 3.0 0.01 0.03 0.01 88 1010.2
20260905101658 71 94 0.0 0.0 0.01 0.03 0.01 90 1010.2
20260905101558 71 94 0.0 0.0 0.01 0.03 0.01 90 1010.2
20260905101457 71 94 0.0 0.0 0.01 0.03 0.01 90 1010.2
20260905101257 71 94 0.0 0.0 0.01 0.03 0.01 89 1010.2
20260905101157 71 94 0.0 1.0 0.01 0.03 0.01 89 1010.2
20260905101059 71 94 0.0 1.0 0.01 0.03 0.01 88 1010.2
20260905100858 71 94 0.0 1.0 0.01 0.03 0.01 88 1010.2
20260905100757 71 94 0.0 1.0 0.01 0.03 0.01 88 1010.2
20260905100557 71 94 0.0 1.0 0.01 0.03 0.01 87 1010.2
20260905100458 71 94 0.0 1.0 0.01 0.03 0.01 87 1010.1
20260905100257 71 94 0.0 1.0 0.01 0.03 0.01 87 1010.1
20260905100056 71 94 0.0 2.0 0.01 0.03 0.01 87 1010.1
20260905095959 71 94 0.0 2.0 0.01 0.04 0.01 87 1010.0
20260905095757 71 94 0.0 2.0 0.01 0.04 0.01 86 1010.1
20260905095657 71 94 0.0 2.0 0.01 0.04 0.01 86 1010.1
20260905095556 71 94 0.0 3.0 0.01 0.04 0.01 86 1010.1
20260905095458 71 94 0.0 3.0 0.01 0.04 0.01 86 1010.1
20260905095357 71 94 1.0 3.0 0.01 0.04 0.01 86 1010.0
20260905095257 71 94 1.0 3.0 0.01 0.04 0.01 86 1010.0
20260905094858 71 94 0.0 3.0 0.00 0.03 0.00 86 1010.1
20260905094757 71 94 0.0 3.0 0.00 0.03 0.00 86 1010.0
20260905094458 71 70 0.0 3.0 0.00 0.03 0.00 86 1010.1
20260905094357 71 70 0.0 3.0 0.00 0.03 0.00 86 1010.1
20260905094257 71 70 0.0 3.0 0.00 0.03 0.00 86 1010.1
20260905094058 71 70 1.0 3.0 0.00 0.03 0.00 86 1010.1
20260905094000 71 105 0.0 3.0 0.00 0.03 0.00 86 1010.0
20260905093857 71 71 1.0 3.0 0.00 0.03 0.00 86 1010.1
20260905093657 71 72 0.0 3.0 0.00 0.03 0.00 86 1010.1
20260905093556 71 69 2.0 4.0 0.00 0.03 0.00 86 1010.1
20260905093458 71 69 1.0 4.0 0.00 0.03 0.00 86 1010.1
20260905093358 71 69 1.0 4.0 0.00 0.03 0.00 86 1010.1
20260905093257 71 69 1.0 4.0 0.00 0.03 0.00 86 1010.1
20260905093159 71 69 1.0 4.0 0.00 0.03 0.00 86 1010.1
20260905093057 71 69 0.0 4.0 0.00 0.03 0.00 86 1010.0
20260905092857 71 69 2.0 4.0 0.00 0.03 0.00 86 1010.0
20260905092757 71 69 1.0 4.0 0.00 0.03 0.00 86 1010.0
20260905092556 71 69 1.0 3.0 0.00 0.03 0.00 86 1009.9
20260905092357 71 69 3.0 3.0 0.00 0.03 0.00 86 1009.9
20260905092257 71 69 2.0 4.0 0.00 0.03 0.00 86 1009.9
20260905092156 71 69 0.0 4.0 0.00 0.03 0.00 86 1009.8
20260905092057 71 70 2.0 4.0 0.00 0.03 0.00 86 1009.8
20260905091958 71 27 2.0 4.0 0.00 0.03 0.00 87 1009.8
20260905091858 71 27 1.0 4.0 0.00 0.03 0.00 87 1009.8
20260905091757 71 13 2.0 4.0 0.00 0.03 0.00 86 1009.9
20260905091700 71 13 0.0 4.0 0.00 0.03 0.00 86 1009.9
20260905091556 71 13 1.0 4.0 0.00 0.03 0.00 86 1009.8
20260905091457 71 13 1.0 4.0 0.00 0.03 0.00 87 1009.9
20260905091356 71 13 2.0 4.0 0.00 0.03 0.00 86 1009.9
20260905091256 71 33 3.0 3.0 0.00 0.03 0.00 86 1009.8
20260905091157 71 33 2.0 3.0 0.00 0.03 0.00 86 1009.8
20260905091057 71 33 1.0 3.0 0.00 0.03 0.00 87 1009.8
20260905090958 71 33 1.0 3.0 0.00 0.03 0.00 87 1009.8
20260905090856 71 33 2.0 3.0 0.00 0.03 0.00 87 1009.8
20260905090757 72 33 2.0 3.0 0.00 0.03 0.00 87 1009.8
20260905090656 72 33 1.0 3.0 0.00 0.03 0.00 86 1009.8
20260905090557 72 33 1.0 3.0 0.00 0.03 0.00 86 1009.8
20260905090459 72 33 1.0 4.0 0.00 0.03 0.00 86 1009.8
20260905090256 72 33 1.0 4.0 0.00 0.03 0.00 87 1009.8
20260905090158 72 34 0.0 4.0 0.00 0.03 0.00 86 1009.7
20260905090057 72 30 1.0 4.0 0.00 0.03 0.00 86 1009.8
20260905085959 72 5 0.0 4.0 0.00 0.03 0.00 86 1009.8
20260905085856 72 5 0.0 4.0 0.00 0.03 0.00 86 1009.8
20260905085657 72 5 0.0 4.0 0.00 0.03 0.00 86 1009.8
20260905085557 72 5 0.0 4.0 0.00 0.03 0.00 86 1009.8
20260905085459 71 23 3.0 3.0 0.00 0.03 0.00 87 1009.8
20260905085358 71 52 0.0 2.0 0.00 0.03 0.00 87 1009.8
20260905085257 71 52 0.0 2.0 0.00 0.03 0.00 86 1009.8
20260905084958 71 52 0.0 2.0 0.00 0.03 0.00 86 1009.8
20260905084857 72 52 0.0 2.0 0.00 0.03 0.00 86 1009.8
20260905084757 72 50 1.0 2.0 0.00 0.03 0.00 87 1009.8
20260905084657 72 42 0.0 2.0 0.00 0.03 0.00 87 1009.9
20260905084557 72 42 0.0 2.0 0.00 0.03 0.00 87 1009.8
20260905084505 72 42 0.0 2.0 0.00 0.03 0.00 87 1009.8
20260905084356 72 42 1.0 1.0 0.00 0.03 0.00 87 1009.9
20260905084257 72 42 0.0 1.0 0.00 0.03 0.00 88 1009.8
20260905084157 72 42 0.0 0.0 0.00 0.03 0.00 88 1009.8
20260905084057 72 42 0.0 0.0 0.00 0.03 0.00 88 1009.8
20260905083958 72 42 0.0 3.0 0.00 0.03 0.00 88 1009.8
20260905083856 72 42 0.0 3.0 0.00 0.03 0.00 87 1009.8
20260905083757 72 42 0.0 5.0 0.00 0.03 0.00 87 1009.8
20260905083657 72 42 0.0 5.0 0.00 0.03 0.00 86 1009.8
20260905083557 72 42 0.0 7.0 0.00 0.03 0.00 86 1009.8
20260905083357 72 42 0.0 7.0 0.00 0.03 0.00 86 1009.7
20260905083256 72 42 0.0 7.0 0.00 0.03 0.00 86 1009.8
20260905083157 72 42 0.0 7.0 0.00 0.03 0.00 85 1009.7
20260905083057 72 42 0.0 7.0 0.00 0.03 0.00 85 1009.8
20260905082959 72 42 1.0 7.0 0.00 0.03 0.00 85 1009.7
20260905082857 72 42 2.0 7.0 0.00 0.03 0.00 85 1009.7
20260905082657 72 90 1.0 7.0 0.00 0.03 0.00 85 1009.7
20260905082557 72 184 4.0 6.0 0.00 0.03 0.00 86 1009.7
20260905082459 72 32 2.0 6.0 0.00 0.03 0.00 86 1009.6
20260905082356 72 24 3.0 6.0 0.00 0.03 0.00 85 1009.7
20260905082258 72 18 5.0 6.0 0.00 0.03 0.00 85 1009.7
20260905082157 72 128 3.0 5.0 0.00 0.03 0.00 86 1009.8
20260905082058 72 35 3.0 4.0 0.00 0.03 0.00 86 1009.8
20260905081959 72 59 2.0 3.0 0.00 0.03 0.00 86 1009.9
20260905081857 72 73 2.0 3.0 0.00 0.03 0.00 86 1009.9
20260905081757 72 48 1.0 3.0 0.00 0.03 0.00 86 1009.9
20260905081557 72 48 1.0 3.0 0.00 0.03 0.00 86 1010.0
20260905081458 72 48 1.0 4.0 0.00 0.03 0.00 86 1010.0
20260905081256 72 48 1.0 4.0 0.00 0.03 0.00 86 1010.0
20260905081158 72 48 0.0 4.0 0.00 0.03 0.00 86 1010.0
20260905081057 72 48 1.0 4.0 0.00 0.03 0.00 85 1010.0
20260905080958 72 48 2.0 4.0 0.00 0.03 0.00 85 1010.0
20260905080758 72 48 1.0 5.0 0.00 0.03 0.00 86 1010.1
20260905080656 72 49 3.0 5.0 0.00 0.03 0.00 85 1010.0
20260905080259 72 11 4.0 5.0 0.00 0.03 0.00 86 1010.0
20260905080157 72 345 1.0 5.0 0.00 0.03 0.00 86 1010.0
20260905080056 72 355 1.0 5.0 0.00 0.03 0.00 86 1010.0
20260905075959 72 10 4.0 5.0 0.00 0.03 0.00 86 1010.0
20260905075857 72 5 1.0 5.0 0.00 0.03 0.00 86 1009.9
20260905075757 72 5 3.0 5.0 0.00 0.03 0.00 86 1009.9
20260905075658 72 5 3.0 5.0 0.00 0.03 0.00 86 1009.9
20260905075557 72 19 2.0 5.0 0.00 0.03 0.00 86 1009.9
20260905075458 72 12 2.0 5.0 0.00 0.03 0.00 86 1009.9
20260905075358 72 11 1.0 5.0 0.00 0.03 0.00 86 1009.9
20260905075258 72 11 0.0 5.0 0.00 0.03 0.00 86 1009.9
20260905075156 72 38 1.0 5.0 0.00 0.03 0.00 86 1010.0
20260905075058 72 38 1.0 5.0 0.00 0.03 0.00 86 1010.0
20260905074957 72 38 2.0 5.0 0.00 0.03 0.00 86 1010.0
20260905074857 72 11 3.0 4.0 0.00 0.03 0.00 86 1010.0
20260905074757 72 27 3.0 4.0 0.00 0.03 0.00 86 1010.0
20260905074657 72 27 2.0 4.0 0.00 0.03 0.00 86 1010.0
20260905074457 72 21 2.0 4.0 0.00 0.03 0.00 87 1010.0
20260905074357 72 16 0.0 4.0 0.00 0.03 0.00 87 1010.1
20260905074156 72 9 3.0 5.0 0.00 0.03 0.00 87 1010.1
20260905073958 72 38 1.0 5.0 0.00 0.03 0.00 87 1010.0
20260905073858 72 38 1.0 5.0 0.00 0.03 0.00 87 1010.1
20260905073756 72 38 3.0 5.0 0.00 0.03 0.00 87 1010.1
20260905073658 72 12 3.0 5.0 0.00 0.03 0.00 87 1010.1
20260905073557 72 5 2.0 5.0 0.00 0.03 0.00 88 1010.1
20260905073459 72 5 2.0 5.0 0.00 0.03 0.00 88 1010.0
20260905073357 73 22 4.0 5.0 0.00 0.03 0.00 88 1010.0
20260905073300 73 32 2.0 5.0 0.00 0.03 0.00 88 1010.0
20260905073058 73 29 1.0 5.0 0.00 0.03 0.00 88 1010.0
20260905072857 73 31 0.0 5.0 0.00 0.03 0.00 88 1010.0
20260905072557 73 360 1.0 5.0 0.00 0.03 0.00 89 1010.0
20260905072357 73 28 0.0 4.0 0.00 0.03 0.00 89 1010.0
20260905072257 73 28 0.0 4.0 0.00 0.03 0.00 89 1010.1
20260905072158 73 28 0.0 4.0 0.00 0.03 0.00 89 1010.0
20260905072058 73 28 0.0 4.0 0.00 0.03 0.00 89 1010.0
20260905071959 73 40 2.0 3.0 0.00 0.03 0.00 90 1010.1
20260905071857 73 28 2.0 3.0 0.00 0.03 0.00 90 1010.0
20260905071657 73 37 3.0 3.0 0.00 0.03 0.00 90 1010.1
20260905071555 73 40 1.0 3.0 0.00 0.03 0.00 90 1010.1
20260905071459 73 40 1.0 3.0 0.00 0.03 0.00 90 1010.1
20260905071357 73 40 0.0 2.0 0.00 0.03 0.00 90 1010.1
20260905071157 73 40 0.0 1.0 0.00 0.03 0.00 90 1010.1
20260905071057 73 40 0.0 0.0 0.00 0.03 0.00 90 1010.1
20260905070958 73 40 0.0 0.0 0.00 0.03 0.00 90 1010.1
20260905070757 73 40 0.0 0.0 0.00 0.03 0.00 90 1010.0
20260905070656 73 40 0.0 0.0 0.00 0.03 0.00 90 1010.0
20260905070557 73 40 0.0 0.0 0.00 0.03 0.00 90 1010.0
20260905070459 73 60 0.0 0.0 0.00 0.03 0.00 90 1010.0
20260905070257 73 60 0.0 0.0 0.00 0.03 0.00 91 1010.0
20260905070158 73 60 0.0 0.0 0.00 0.03 0.00 91 1010.0
20260905070058 73 60 0.0 0.0 0.00 0.03 0.00 91 1010.0
20260905065959 73 60 0.0 0.0 0.00 0.04 0.00 91 1010.1
20260905065857 73 61 0.0 0.0 0.00 0.04 0.00 91 1010.0
20260905065757 73 28 0.0 0.0 0.00 0.04 0.00 91 1010.0
20260905065656 73 28 0.0 0.0 0.00 0.04 0.00 91 1010.1
20260905065458 73 28 0.0 0.0 0.00 0.04 0.00 91 1010.0
20260905065356 73 28 0.0 0.0 0.00 0.04 0.00 91 1010.1
20260905065258 73 28 0.0 0.0 0.00 0.04 0.00 91 1010.1
20260905065157 73 28 0.0 0.0 0.00 0.04 0.00 92 1010.0
20260905065058 73 28 0.0 0.0 0.00 0.04 0.00 92 1010.1
20260905064857 73 28 0.0 0.0 0.00 0.04 0.00 92 1010.1
20260905064758 72 28 0.0 0.0 0.00 0.04 0.00 92 1010.1
20260905064657 72 28 0.0 0.0 0.00 0.04 0.00 93 1010.1
20260905064458 72 28 0.0 0.0 0.00 0.04 0.00 93 1010.1
20260905064357 72 28 0.0 0.0 0.00 0.04 0.00 93 1010.1
20260905064257 72 28 0.0 0.0 0.00 0.04 0.00 93 1010.2
20260905064158 72 28 0.0 0.0 0.00 0.04 0.00 93 1010.2
20260905064058 72 28 0.0 0.0 0.00 0.04 0.00 93 1010.1
20260905063958 72 28 0.0 0.0 0.00 0.04 0.00 94 1010.1
20260905063857 72 28 0.0 0.0 0.00 0.04 0.00 94 1010.1
20260905063657 72 28 0.0 0.0 0.00 0.04 0.00 95 1010.1
20260905063557 72 28 0.0 0.0 0.00 0.04 0.00 95 1010.1
20260905063458 72 28 0.0 0.0 0.00 0.04 0.00 95 1010.1
20260905063257 72 28 0.0 0.0 0.00 0.04 0.00 96 1010.1
20260905063158 72 28 0.0 0.0 0.00 0.04 0.00 96 1010.1
20260905063058 72 28 0.0 0.0 0.00 0.04 0.00 96 1010.1
20260905062958 72 28 0.0 0.0 0.00 0.04 0.00 96 1010.1
20260905062857 72 28 0.0 0.0 0.00 0.04 0.00 96 1010.1
20260905062758 72 28 0.0 0.0 0.00 0.04 0.00 97 1010.1
20260905062557 72 28 0.0 0.0 0.00 0.04 0.00 97 1010.1
20260905062356 72 28 0.0 0.0 0.00 0.04 0.00 97 1010.1
20260905062256 72 28 0.0 0.0 0.00 0.04 0.00 97 1010.0
20260905062156 72 28 0.0 0.0 0.00 0.04 0.00 97 1010.1
20260905062057 72 28 0.0 0.0 0.00 0.04 0.00 97 1010.0
20260905061959 72 28 0.0 0.0 0.00 0.04 0.00 97 1010.0
20260905061856 72 28 0.0 0.0 0.00 0.04 0.00 97 1010.1
20260905061757 72 28 0.0 0.0 0.00 0.04 0.00 97 1010.1
20260905061557 72 28 0.0 0.0 0.00 0.04 0.00 97 1010.1
20260905061459 72 28 0.0 0.0 0.00 0.04 0.00 97 1010.2
20260905061356 72 28 0.0 0.0 0.00 0.04 0.00 97 1010.2
20260905061258 72 28 0.0 0.0 0.00 0.04 0.00 97 1010.2
20260905061157 72 28 0.0 0.0 0.00 0.04 0.00 97 1010.2
20260905060958 72 28 0.0 0.0 0.00 0.04 0.00 97 1010.2
20260905060858 72 28 0.0 0.0 0.00 0.04 0.00 97 1010.2
20260905060757 72 28 0.0 0.0 0.00 0.04 0.00 97 1010.2
20260905060657 72 28 0.0 0.0 0.00 0.04 0.00 97 1010.2
20260905060556 72 28 0.0 0.0 0.00 0.04 0.00 97 1010.3
20260905060459 72 28 0.0 0.0 0.00 0.04 0.00 97 1010.2
20260905060357 72 28 0.0 0.0 0.00 0.04 0.00 97 1010.2
20260905060258 72 28 0.0 0.0 0.00 0.04 0.00 97 1010.2
20260905060157 72 28 0.0 0.0 0.00 0.04 0.00 97 1010.2
20260905060058 72 28 0.0 0.0 0.00 0.04 0.00 97 1010.2
20260905055958 72 28 0.0 0.0 0.00 0.04 0.00 97 1010.2
20260905055758 72 28 0.0 0.0 0.00 0.04 0.00 97 1010.3
20260905055557 72 28 0.0 0.0 0.00 0.04 0.00 97 1010.3
20260905055257 72 28 0.0 0.0 0.00 0.04 0.00 97 1010.2
20260905055157 72 28 0.0 0.0 0.00 0.04 0.00 97 1010.3
20260905055058 72 28 0.0 0.0 0.00 0.04 0.00 97 1010.2
20260905054958 72 28 0.0 0.0 0.00 0.04 0.00 97 1010.3
20260905054858 72 28 0.0 0.0 0.00 0.04 0.00 97 1010.3
20260905054758 72 28 0.0 0.0 0.00 0.04 0.00 97 1010.3
20260905054658 72 28 0.0 0.0 0.00 0.04 0.00 97 1010.3
20260905054558 72 28 0.0 0.0 0.00 0.04 0.00 97 1010.3
20260905054458 72 28 0.0 0.0 0.00 0.04 0.00 97 1010.4
20260905054357 72 28 0.0 0.0 0.00 0.04 0.00 97 1010.4
20260905054257 72 28 0.0 0.0 0.00 0.04 0.00 97 1010.4
20260905054056 72 28 0.0 0.0 0.00 0.04 0.00 97 1010.5
20260905053959 72 28 0.0 0.0 0.00 0.04 0.00 97 1010.5
20260905053857 72 28 0.0 0.0 0.00 0.04 0.00 97 1010.5
20260905053756 72 28 0.0 0.0 0.00 0.04 0.00 97 1010.5
20260905053458 72 28 0.0 0.0 0.00 0.04 0.00 97 1010.4
20260905053358 72 28 0.0 0.0 0.00 0.04 0.00 97 1010.4
20260905053257 72 28 0.0 0.0 0.00 0.04 0.00 97 1010.5
20260905053157 72 28 0.0 0.0 0.00 0.04 0.00 97 1010.5
20260905053057 72 28 0.0 0.0 0.00 0.04 0.00 97 1010.5
20260905052958 72 28 0.0 0.0 0.00 0.04 0.00 97 1010.5
20260905052757 72 28 0.0 0.0 0.00 0.04 0.00 97 1010.5
20260905052557 72 28 0.0 0.0 0.00 0.04 0.00 97 1010.5
20260905052458 72 28 0.0 0.0 0.00 0.04 0.00 97 1010.6
20260905052356 72 28 0.0 0.0 0.00 0.04 0.00 97 1010.6
20260905052256 72 28 0.0 0.0 0.00 0.04 0.00 97 1010.6
20260905052157 72 28 0.0 0.0 0.00 0.04 0.00 97 1010.6
20260905052058 72 28 0.0 0.0 0.00 0.04 0.00 97 1010.6
20260905051958 72 28 0.0 0.0 0.00 0.04 0.00 97 1010.6
20260905051858 72 28 0.0 0.0 0.00 0.04 0.00 97 1010.6
20260905051756 72 28 0.0 0.0 0.00 0.04 0.00 97 1010.6
20260905051658 72 28 0.0 0.0 0.00 0.04 0.00 97 1010.6
20260905051557 72 28 0.0 0.0 0.00 0.04 0.00 97 1010.6
20260905051458 72 28 0.0 0.0 0.00 0.04 0.00 97 1010.6
20260905051357 72 28 0.0 0.0 0.00 0.04 0.00 97 1010.6
20260905051257 72 28 0.0 0.0 0.00 0.04 0.00 97 1010.6
20260905051057 72 28 0.0 0.0 0.00 0.04 0.00 97 1010.6
20260905050959 72 28 0.0 0.0 0.00 0.04 0.00 97 1010.7
20260905050857 72 28 0.0 0.0 0.00 0.04 0.00 97 1010.6
20260905050556 72 28 0.0 0.0 0.00 0.04 0.00 97 1010.7
20260905050458 72 28 0.0 0.0 0.00 0.04 0.00 97 1010.7
20260905050356 72 28 0.0 0.0 0.00 0.04 0.00 97 1010.7
20260905050256 72 28 0.0 0.0 0.00 0.04 0.00 97 1010.7
20260905050156 72 28 0.0 0.0 0.00 0.04 0.00 97 1010.7
20260905050057 72 28 0.0 0.0 0.00 0.04 0.00 97 1010.7
20260905045858 72 28 0.0 0.0 0.00 0.04 0.00 97 1010.8
20260905045759 72 28 0.0 0.0 0.00 0.04 0.00 97 1010.7
20260905045658 72 28 0.0 0.0 0.00 0.04 0.00 97 1010.8
20260905045557 72 28 0.0 0.0 0.00 0.04 0.00 97 1010.8
20260905045459 72 28 0.0 0.0 0.00 0.04 0.00 97 1010.9
20260905045359 72 28 0.0 0.0 0.00 0.04 0.00 97 1010.8
20260905045257 72 28 0.0 0.0 0.00 0.04 0.00 97 1010.9
20260905045158 72 28 0.0 0.0 0.00 0.04 0.00 97 1010.9
20260905045057 72 28 0.0 0.0 0.00 0.04 0.00 97 1010.9
20260905044958 72 28 0.0 0.0 0.00 0.04 0.00 97 1010.9
20260905044859 72 28 0.0 0.0 0.00 0.04 0.00 97 1010.9
20260905044658 72 28 0.0 0.0 0.00 0.04 0.00 97 1010.9
20260905044559 72 28 0.0 0.0 0.00 0.04 0.00 97 1010.9
20260905044502 72 28 0.0 0.0 0.00 0.04 0.00 97 1010.9
20260905044257 72 28 0.0 0.0 0.00 0.04 0.00 97 1010.9
20260905044158 72 28 0.0 0.0 0.00 0.04 0.00 97 1010.9
20260905044058 72 28 0.0 0.0 0.00 0.04 0.00 97 1010.9
20260905044000 72 28 0.0 0.0 0.00 0.04 0.00 96 1010.9
20260905043858 72 28 0.0 0.0 0.00 0.04 0.00 96 1010.9
20260905043759 72 28 0.0 0.0 0.00 0.04 0.00 96 1010.9
20260905043658 72 28 0.0 0.0 0.00 0.04 0.00 96 1010.9
20260905043558 72 28 0.0 0.0 0.00 0.04 0.00 96 1010.8
20260905043459 72 28 0.0 0.0 0.00 0.04 0.00 96 1010.8
20260905043358 72 28 0.0 0.0 0.00 0.04 0.00 96 1010.9
20260905043257 72 28 0.0 0.0 0.00 0.04 0.00 96 1010.8
20260905043158 72 28 0.0 0.0 0.00 0.04 0.00 96 1010.7
20260905043059 72 28 0.0 0.0 0.00 0.04 0.00 96 1010.7
20260905043001 72 28 0.0 0.0 0.00 0.04 0.00 96 1010.7
20260905042857 73 28 0.0 0.0 0.00 0.04 0.00 96 1010.7
20260905042757 72 28 0.0 0.0 0.00 0.04 0.00 96 1010.7
20260905042658 72 28 0.0 0.0 0.00 0.04 0.00 96 1010.8
20260905042559 72 28 0.0 0.0 0.00 0.04 0.00 96 1010.7
20260905042500 72 28 0.0 0.0 0.00 0.04 0.00 96 1010.7
20260905042358 72 28 0.0 0.0 0.00 0.04 0.00 96 1010.7
20260905042259 72 28 0.0 0.0 0.00 0.04 0.00 96 1010.7
20260905042158 72 28 0.0 0.0 0.00 0.04 0.00 96 1010.7
20260905042058 72 28 0.0 0.0 0.00 0.04 0.00 96 1010.7
20260905041959 72 28 0.0 0.0 0.00 0.04 0.00 96 1010.7
20260905041859 72 28 0.0 0.0 0.00 0.04 0.00 96 1010.7
20260905041758 72 28 0.0 0.0 0.00 0.04 0.00 96 1010.8
20260905041658 72 28 0.0 0.0 0.00 0.04 0.00 96 1010.8
20260905041558 72 28 0.0 0.0 0.00 0.04 0.00 96 1010.7
20260905041500 72 28 0.0 0.0 0.00 0.04 0.00 96 1010.8
20260905041358 72 28 0.0 0.0 0.00 0.04 0.00 96 1010.8
20260905041258 72 28 0.0 0.0 0.00 0.04 0.00 96 1010.8
20260905041158 72 28 0.0 0.0 0.00 0.04 0.00 96 1010.7
20260905041058 72 28 0.0 0.0 0.00 0.04 0.00 96 1010.7
20260905040959 72 28 0.0 0.0 0.00 0.04 0.00 96 1010.7
20260905040857 72 28 0.0 0.0 0.00 0.04 0.00 96 1010.7
20260905040758 72 28 0.0 0.0 0.00 0.04 0.00 96 1010.7
20260905040658 72 28 0.0 0.0 0.00 0.04 0.00 96 1010.8
20260905040558 72 28 0.0 0.0 0.00 0.04 0.00 96 1010.8
20260905040458 72 28 0.0 0.0 0.00 0.04 0.00 96 1010.9
20260905040358 72 28 0.0 0.0 0.00 0.04 0.00 96 1010.9
20260905040258 72 28 0.0 0.0 0.00 0.04 0.00 96 1010.9
20260905040000 72 28 0.0 0.0 0.00 0.04 0.04 96 1010.9
20260905035759 72 28 0.0 0.0 0.00 0.04 0.04 96 1010.9
20260905035600 72 28 0.0 0.0 0.00 0.04 0.04 96 1010.9
20260905035358 72 28 0.0 0.0 0.00 0.04 0.04 97 1010.9
20260905035300 72 28 0.0 0.0 0.00 0.04 0.04 97 1010.9
20260905035159 72 28 0.0 0.0 0.00 0.04 0.04 97 1010.9
20260905035059 72 28 0.0 0.0 0.00 0.04 0.04 97 1010.9
20260905035000 72 28 0.0 0.0 0.00 0.04 0.04 97 1010.8
20260905034900 72 28 0.0 0.0 0.00 0.04 0.04 97 1010.9
20260905034759 72 28 0.0 0.0 0.00 0.04 0.04 97 1010.9
20260905034659 72 28 0.0 0.0 0.00 0.04 0.04 97 1010.9
20260905034600 72 28 0.0 0.0 0.00 0.04 0.04 97 1010.9
20260905034501 72 28 0.0 0.0 0.00 0.04 0.04 97 1010.8
20260905034401 72 28 0.0 0.0 0.00 0.04 0.04 97 1010.9
20260905034300 72 28 0.0 0.0 0.00 0.04 0.04 97 1010.8
20260905034200 72 28 0.0 0.0 0.00 0.04 0.04 97 1010.8
20260905034058 72 28 0.0 0.0 0.00 0.04 0.04 97 1010.8
20260905034000 72 28 0.0 0.0 0.00 0.04 0.04 97 1010.8
20260905033800 72 28 0.0 0.0 0.00 0.04 0.04 97 1010.7
20260905033659 72 28 0.0 0.0 0.00 0.04 0.04 97 1010.7
20260905033600 72 28 0.0 0.0 0.00 0.04 0.04 97 1010.7
20260905033400 72 28 0.0 0.0 0.00 0.04 0.04 97 1010.7
20260905033259 72 28 0.0 0.0 0.00 0.04 0.04 97 1010.7
20260905033159 72 28 0.0 0.0 0.00 0.04 0.04 97 1010.7
20260905033100 72 28 0.0 0.0 0.00 0.04 0.04 97 1010.7
20260905032959 72 28 0.0 0.0 0.00 0.04 0.04 97 1010.7
20260905032900 72 28 0.0 0.0 0.00 0.04 0.04 97 1010.7
20260905032758 72 28 0.0 0.0 0.00 0.04 0.04 97 1010.7
20260905032659 72 28 0.0 0.0 0.00 0.04 0.04 97 1010.7
20260905032500 72 28 0.0 0.0 0.00 0.04 0.04 97 1010.7
20260905032400 72 28 0.0 0.0 0.00 0.04 0.04 97 1010.7
20260905032259 72 28 0.0 0.0 0.00 0.04 0.04 97 1010.7
20260905032159 72 28 0.0 0.0 0.00 0.04 0.04 97 1010.6
20260905032059 72 28 0.0 0.0 0.00 0.04 0.04 97 1010.6
20260905032002 72 28 0.0 0.0 0.00 0.04 0.04 97 1010.6
20260905031859 72 28 0.0 0.0 0.00 0.04 0.04 97 1010.6
20260905031759 72 28 0.0 0.0 0.00 0.04 0.04 97 1010.6
20260905031659 72 28 0.0 0.0 0.00 0.04 0.04 97 1010.6
20260905031501 72 28 0.0 0.0 0.00 0.04 0.04 97 1010.6
20260905031400 72 28 0.0 0.0 0.00 0.04 0.04 97 1010.7
20260905031200 72 28 0.0 0.0 0.00 0.04 0.04 97 1010.7
20260905031100 72 28 0.0 0.0 0.00 0.04 0.04 97 1010.7
20260905031001 72 28 0.0 0.0 0.00 0.04 0.04 97 1010.7
20260905030859 72 28 0.0 0.0 0.00 0.04 0.04 97 1010.7
20260905030759 72 28 0.0 0.0 0.00 0.04 0.04 97 1010.7
20260905030658 72 28 0.0 0.0 0.00 0.04 0.04 97 1010.7
20260905030600 72 28 0.0 0.0 0.00 0.04 0.04 97 1010.6
20260905030501 72 28 0.0 0.0 0.00 0.04 0.04 97 1010.6
20260905030359 72 28 0.0 0.0 0.00 0.04 0.04 97 1010.6
20260905030100 72 28 0.0 0.0 0.00 0.04 0.04 97 1010.6
20260905030004 73 28 0.0 0.0 0.00 0.04 0.04 97 1010.5
20260905025900 73 28 0.0 0.0 0.00 0.04 0.04 97 1010.6
20260905025759 73 28 0.0 0.0 0.00 0.04 0.04 97 1010.6
20260905025659 73 28 0.0 0.0 0.00 0.04 0.04 97 1010.5
20260905025502 73 28 0.0 0.0 0.00 0.04 0.04 97 1010.5
20260905025359 73 28 0.0 0.0 0.00 0.04 0.04 97 1010.5
20260905025259 73 28 0.0 0.0 0.00 0.04 0.04 97 1010.5
20260905025159 73 28 0.0 0.0 0.00 0.04 0.04 97 1010.5
20260905025059 73 28 0.0 0.0 0.00 0.04 0.04 97 1010.5
20260905025003 73 28 0.0 0.0 0.00 0.04 0.04 97 1010.5
20260905024859 73 28 0.0 0.0 0.00 0.04 0.04 97 1010.5
20260905024800 73 28 0.0 0.0 0.00 0.04 0.04 97 1010.5
20260905024658 73 28 0.0 0.0 0.00 0.04 0.04 97 1010.5
20260905024558 73 28 0.0 0.0 0.00 0.04 0.04 97 1010.5
20260905024504 73 28 0.0 0.0 0.00 0.04 0.04 97 1010.5
20260905024400 73 28 0.0 0.0 0.00 0.04 0.04 97 1010.5
20260905024300 73 28 0.0 0.0 0.00 0.04 0.04 97 1010.6
20260905024159 73 28 0.0 0.0 0.00 0.04 0.04 97 1010.6
20260905024059 73 28 0.0 0.0 0.00 0.04 0.04 97 1010.5
20260905024001 73 28 0.0 0.0 0.00 0.04 0.04 97 1010.5
20260905023859 73 28 0.0 0.0 0.00 0.04 0.04 97 1010.6
20260905023759 73 28 0.0 0.0 0.00 0.04 0.04 97 1010.5
20260905023659 73 28 0.0 0.0 0.00 0.04 0.04 97 1010.5
20260905023600 73 28 0.0 0.0 0.00 0.04 0.04 97 1010.6
20260905023400 73 28 0.0 0.0 0.00 0.04 0.04 97 1010.5
20260905023259 73 28 0.0 0.0 0.00 0.04 0.04 97 1010.5
20260905023159 73 28 0.0 0.0 0.00 0.04 0.04 97 1010.5
20260905023100 73 28 0.0 0.0 0.00 0.04 0.04 97 1010.5
20260905022959 73 28 0.0 0.0 0.00 0.04 0.04 97 1010.5
20260905022801 73 28 0.0 0.0 0.00 0.04 0.04 97 1010.5
20260905022659 73 28 0.0 0.0 0.00 0.04 0.04 97 1010.4
20260905022559 73 28 0.0 0.0 0.00 0.04 0.04 97 1010.4
20260905022501 73 28 0.0 0.0 0.00 0.04 0.04 97 1010.4
20260905022359 73 28 0.0 0.0 0.00 0.04 0.04 97 1010.4
20260905022259 73 28 0.0 0.0 0.00 0.04 0.04 97 1010.4
20260905022159 73 28 0.0 0.0 0.00 0.04 0.04 97 1010.4
20260905022059 73 28 0.0 0.0 0.00 0.04 0.04 97 1010.4
20260905022004 73 28 0.0 0.0 0.00 0.04 0.04 97 1010.4
20260905021858 73 28 0.0 0.0 0.00 0.04 0.04 97 1010.4
20260905021759 73 28 0.0 0.0 0.00 0.04 0.04 97 1010.4
20260905021659 74 28 0.0 0.0 0.00 0.04 0.04 96 1010.4
20260905021559 74 28 0.0 0.0 0.00 0.04 0.04 96 1010.4
20260905021500 74 28 0.0 0.0 0.00 0.04 0.04 96 1010.3
20260905021359 74 28 0.0 0.0 0.00 0.04 0.04 96 1010.4
20260905021259 74 28 0.0 0.0 0.00 0.04 0.04 96 1010.4
20260905021003 74 28 0.0 0.0 0.00 0.04 0.04 96 1010.4
20260905020758 74 28 0.0 0.0 0.00 0.04 0.04 96 1010.4
20260905020659 74 28 0.0 0.0 0.00 0.04 0.04 96 1010.3
20260905020559 74 28 0.0 0.0 0.00 0.04 0.04 96 1010.3
20260905020500 74 28 0.0 0.0 0.00 0.04 0.04 96 1010.3
20260905020358 74 28 0.0 0.0 0.00 0.04 0.04 96 1010.3
20260905020300 74 28 0.0 0.0 0.00 0.04 0.04 96 1010.3
20260905020100 74 28 0.0 0.0 0.00 0.04 0.04 96 1010.3
20260905015900 74 28 0.0 0.0 0.00 0.05 0.04 96 1010.2
20260905015759 74 28 0.0 0.0 0.00 0.05 0.04 95 1010.3
20260905015659 74 28 0.0 0.0 0.00 0.05 0.04 95 1010.2
20260905015358 74 28 0.0 0.0 0.00 0.05 0.04 95 1010.3
20260905015258 74 28 0.0 0.0 0.00 0.05 0.04 95 1010.3
20260905015159 74 28 0.0 0.0 0.00 0.05 0.04 95 1010.3
20260905015100 74 28 0.0 0.0 0.00 0.05 0.04 95 1010.3
20260905015002 74 28 0.0 0.0 0.00 0.05 0.04 95 1010.3
20260905014900 74 28 0.0 0.0 0.00 0.05 0.04 95 1010.3
20260905014758 74 28 0.0 0.0 0.00 0.05 0.04 95 1010.3
20260905014700 74 28 0.0 0.0 0.00 0.05 0.04 95 1010.3
20260905014558 74 28 0.0 0.0 0.00 0.05 0.04 95 1010.3
20260905014502 75 28 0.0 0.0 0.00 0.05 0.04 95 1010.3
20260905014259 75 28 0.0 0.0 0.00 0.05 0.04 94 1010.3
20260905014159 75 28 0.0 0.0 0.00 0.05 0.04 94 1010.2
20260905014059 75 28 0.0 0.0 0.00 0.05 0.04 94 1010.3
20260905014001 75 28 0.0 0.0 0.00 0.05 0.04 94 1010.3
20260905013859 75 28 0.0 0.0 0.00 0.05 0.04 94 1010.2
20260905013759 75 28 0.0 0.0 0.00 0.05 0.04 94 1010.3
20260905013659 75 28 0.0 0.0 0.00 0.05 0.04 94 1010.3
20260905013501 75 28 0.0 0.0 0.00 0.05 0.04 94 1010.3
20260905013400 75 28 0.0 0.0 0.00 0.05 0.04 94 1010.2
20260905013300 75 28 0.0 0.0 0.00 0.05 0.04 94 1010.2
20260905013159 75 28 0.0 0.0 0.00 0.05 0.04 94 1010.3
20260905013059 75 28 0.0 0.0 0.00 0.05 0.04 94 1010.3
20260905012859 75 28 0.0 0.0 0.00 0.05 0.04 94 1010.3
20260905012759 75 28 0.0 0.0 0.00 0.05 0.04 94 1010.3
20260905012559 75 28 0.0 0.0 0.00 0.05 0.04 94 1010.3
20260905012500 75 28 0.0 0.0 0.00 0.05 0.04 94 1010.4
20260905012359 75 28 0.0 0.0 0.00 0.05 0.04 94 1010.4
20260905012159 75 28 0.0 0.0 0.00 0.05 0.04 94 1010.4
20260905012059 75 28 0.0 0.0 0.00 0.05 0.04 94 1010.4
20260905012001 75 28 0.0 0.0 0.00 0.05 0.04 94 1010.4
20260905011759 75 28 0.0 0.0 0.00 0.05 0.04 94 1010.4
20260905011700 75 28 0.0 0.0 0.00 0.05 0.04 93 1010.4
20260905011559 75 28 0.0 0.0 0.00 0.05 0.04 93 1010.4
20260905011501 75 28 0.0 0.0 0.00 0.05 0.04 93 1010.4
20260905011259 75 28 0.0 0.0 0.00 0.05 0.04 93 1010.4
20260905011200 75 28 0.0 0.0 0.00 0.05 0.04 93 1010.3
20260905011001 76 28 0.0 0.0 0.00 0.05 0.04 93 1010.3
20260905010858 76 28 0.0 0.0 0.00 0.05 0.04 93 1010.3
20260905010759 76 28 0.0 0.0 0.00 0.05 0.04 93 1010.3
20260905010659 76 28 0.0 0.0 0.00 0.05 0.04 93 1010.2
20260905010359 76 28 0.0 0.0 0.00 0.05 0.04 93 1010.2
20260905010259 76 28 0.0 0.0 0.00 0.05 0.04 93 1010.3
20260905010201 76 28 0.0 0.0 0.00 0.05 0.04 93 1010.2
20260905010100 76 28 0.0 0.0 0.00 0.05 0.04 93 1010.2
20260905010003 76 28 0.0 0.0 0.00 0.05 0.04 93 1010.2
20260905005859 76 28 0.0 0.0 0.00 0.05 0.04 93 1010.2
20260905005758 76 28 0.0 0.0 0.00 0.05 0.04 93 1010.2
20260905005700 76 28 0.0 0.0 0.00 0.05 0.04 93 1010.2
20260905005559 76 28 0.0 0.0 0.00 0.05 0.04 93 1010.3
20260905005503 76 28 0.0 0.0 0.00 0.05 0.04 93 1010.3
20260905005358 76 28 0.0 0.0 0.00 0.05 0.04 93 1010.3
20260905005200 76 28 0.0 0.0 0.00 0.05 0.04 93 1010.2
20260905005059 76 28 0.0 0.0 0.00 0.05 0.04 93 1010.2
20260905005001 76 28 0.0 0.0 0.00 0.05 0.04 93 1010.2
20260905004859 76 28 0.0 0.0 0.00 0.05 0.04 93 1010.2
20260905004759 76 28 0.0 0.0 0.00 0.05 0.04 93 1010.2
20260905004659 76 28 0.0 0.0 0.00 0.05 0.04 93 1010.2
20260905004600 76 28 0.0 0.0 0.00 0.05 0.04 93 1010.2
20260905004501 76 28 0.0 0.0 0.00 0.05 0.04 93 1010.2
20260905004359 76 28 0.0 0.0 0.00 0.05 0.04 93 1010.2
20260905004300 76 28 0.0 0.0 0.00 0.05 0.04 93 1010.2
20260905004159 76 28 0.0 0.0 0.00 0.05 0.04 93 1010.2
20260905004100 76 28 0.0 0.0 0.00 0.05 0.04 93 1010.2
20260905004006 76 28 0.0 0.0 0.00 0.05 0.04 93 1010.2
20260905003758 76 28 0.0 0.0 0.00 0.05 0.04 93 1010.2
20260905003600 76 28 0.0 0.0 0.00 0.05 0.04 93 1010.2
20260905003502 76 28 0.0 0.0 0.00 0.05 0.04 93 1010.2
20260905003359 76 28 0.0 0.0 0.00 0.05 0.04 93 1010.2
20260905003300 76 28 0.0 0.0 0.00 0.05 0.04 93 1010.2
20260905003159 76 28 0.0 0.0 0.00 0.05 0.04 93 1010.1
20260905003058 76 28 0.0 0.0 0.00 0.05 0.04 93 1010.1
20260905003000 76 28 0.0 0.0 0.00 0.05 0.04 93 1010.0
20260905002904 76 28 0.0 0.0 0.00 0.05 0.04 93 1010.0
20260905002759 76 28 0.0 0.0 0.00 0.05 0.04 93 1009.9
20260905002659 76 28 0.0 0.0 0.00 0.05 0.04 93 1010.0
20260905002559 76 28 0.0 0.0 0.00 0.05 0.04 93 1009.9
20260905002502 76 28 0.0 0.0 0.00 0.05 0.04 93 1009.9
20260905002258 76 28 0.0 0.0 0.00 0.05 0.04 93 1010.0
20260905002159 76 28 0.0 0.0 0.00 0.05 0.04 93 1009.9
20260905002059 76 28 0.0 0.0 0.00 0.05 0.04 92 1009.9
20260905002002 76 28 0.0 0.0 0.00 0.05 0.04 92 1009.9
20260905001859 76 28 0.0 0.0 0.00 0.05 0.04 92 1009.9
20260905001800 76 28 0.0 0.0 0.00 0.05 0.04 92 1009.9
20260905001701 76 28 0.0 0.0 0.00 0.05 0.04 92 1009.9
20260905001558 76 28 0.0 0.0 0.00 0.05 0.04 92 1009.9
20260905001502 76 28 0.0 0.0 0.00 0.05 0.04 92 1009.9
20260905001359 76 28 0.0 0.0 0.00 0.05 0.04 92 1009.9
20260905001300 76 28 0.0 0.0 0.00 0.05 0.04 92 1009.9
20260905001159 76 28 0.0 0.0 0.00 0.05 0.04 92 1009.9
20260905001100 76 28 0.0 0.0 0.00 0.05 0.04 92 1009.8
20260905001000 76 28 0.0 0.0 0.00 0.05 0.04 92 1009.8
20260905000859 76 28 0.0 0.0 0.00 0.05 0.04 91 1009.9
20260905000759 76 28 0.0 0.0 0.00 0.05 0.04 91 1009.9
20260905000659 76 28 0.0 0.0 0.00 0.05 0.04 91 1009.8
20260905000600 76 28 0.0 0.0 0.00 0.05 0.04 91 1009.9
20260905000501 76 28 0.0 0.0 0.00 0.05 0.04 91 1009.9
20260905000402 76 28 0.0 0.0 0.00 0.05 0.04 91 1009.9
20260905000259 76 28 0.0 0.0 0.00 0.05 0.04 91 1009.8
20260905000159 76 28 0.0 0.0 0.00 0.05 0.04 90 1009.9
20260905000100 76 28 0.0 0.0 0.00 0.05 0.04 90 1009.9
20260905000002 77 28 0.0 0.0 0.00 0.05 0.04 90 1009.8
20260904235858 77 28 0.0 0.0 0.00 0.06 0.04 90 1009.9
20260904235559 77 28 0.0 0.0 0.00 0.06 0.04 90 1009.9
20260904235402 77 28 0.0 0.0 0.00 0.06 0.04 90 1009.9
20260904235258 77 28 0.0 0.0 0.00 0.06 0.04 90 1009.9
20260904235000 77 28 0.0 0.0 0.00 0.06 0.04 90 1009.9
20260904234900 77 28 0.0 0.0 0.00 0.06 0.04 90 1009.9
20260904234800 77 28 0.0 0.0 0.00 0.06 0.04 90 1009.9
20260904234700 77 28 0.0 0.0 0.00 0.06 0.04 89 1009.9
20260904234359 77 28 0.0 0.0 0.00 0.06 0.04 89 1009.8
20260904234258 77 28 0.0 0.0 0.00 0.06 0.04 89 1009.8
20260904234158 77 28 0.0 0.0 0.00 0.06 0.04 89 1009.8
20260904234059 78 28 0.0 0.0 0.00 0.06 0.04 89 1009.8
20260904234001 78 28 0.0 0.0 0.00 0.06 0.04 89 1009.8
20260904233759 78 28 0.0 0.0 0.00 0.06 0.04 89 1009.8
20260904233658 78 28 0.0 0.0 0.00 0.06 0.04 88 1009.8
20260904233559 78 28 0.0 0.0 0.00 0.06 0.04 88 1009.8
20260904233502 78 28 0.0 0.0 0.00 0.06 0.04 88 1009.8
20260904233359 78 28 0.0 0.0 0.00 0.06 0.04 88 1009.8
20260904233259 78 28 0.0 0.0 0.00 0.06 0.04 88 1009.9
20260904233201 78 28 0.0 0.0 0.00 0.06 0.04 88 1009.8
20260904233100 78 28 0.0 0.0 0.00 0.06 0.04 88 1009.8
20260904232859 78 28 0.0 0.0 0.00 0.06 0.04 88 1009.9
20260904232800 78 28 0.0 0.0 0.00 0.06 0.04 88 1009.9
20260904232659 78 28 0.0 0.0 0.00 0.06 0.04 88 1009.8
20260904232558 78 28 0.0 0.0 0.00 0.06 0.04 88 1009.8
20260904232359 78 28 0.0 0.0 0.00 0.06 0.04 87 1009.8
20260904232059 78 28 0.0 0.0 0.00 0.06 0.04 88 1009.8
20260904232001 78 28 0.0 0.0 0.00 0.06 0.04 88 1009.8
20260904231859 78 28 0.0 0.0 0.00 0.06 0.04 88 1009.9
20260904231658 79 28 0.0 0.0 0.00 0.06 0.04 86 1009.9
20260904231559 79 28 0.0 0.0 0.00 0.06 0.04 86 1009.9
20260904231500 79 28 0.0 0.0 0.00 0.06 0.04 86 1009.9
20260904231359 79 28 0.0 0.0 0.00 0.06 0.04 86 1009.9
20260904231158 79 28 0.0 0.0 0.00 0.06 0.04 87 1009.9
20260904231001 79 28 0.0 0.0 0.00 0.06 0.04 86 1009.9
20260904230902 79 28 0.0 0.0 0.00 0.06 0.04 86 1009.9
20260904230759 79 28 0.0 0.0 0.00 0.06 0.04 86 1009.9
20260904230659 79 28 0.0 0.0 0.00 0.06 0.04 85 1009.9
20260904230600 79 28 0.0 0.0 0.00 0.06 0.04 86 1009.9
20260904230501 79 28 0.0 0.0 0.00 0.06 0.04 86 1009.9
20260904230400 79 28 0.0 0.0 0.00 0.06 0.04 86 1009.9
20260904230259 79 28 0.0 0.0 0.00 0.06 0.04 86 1009.8
20260904230159 79 28 0.0 0.0 0.00 0.06 0.04 86 1009.9
20260904230059 79 28 0.0 0.0 0.00 0.06 0.04 85 1009.9
20260904225959 79 28 0.0 0.0 0.00 0.06 0.04 85 1009.9
20260904225858 79 28 0.0 0.0 0.00 0.06 0.04 85 1009.9
20260904225757 79 28 0.0 0.0 0.00 0.06 0.04 84 1009.9
20260904225659 79 28 0.0 0.0 0.01 0.06 0.04 84 1009.9
20260904225558 79 28 0.0 0.0 0.01 0.06 0.04 84 1009.9
20260904225501 79 28 0.0 0.0 0.01 0.06 0.04 85 1009.9
20260904225401 79 28 0.0 0.0 0.01 0.06 0.04 85 1009.9
20260904225259 80 28 0.0 0.0 0.01 0.06 0.04 84 1009.9
20260904225059 80 28 0.0 0.0 0.01 0.06 0.04 84 1009.9
20260904224758 80 28 0.0 0.0 0.01 0.06 0.04 84 1009.9
20260904224659 80 28 0.0 0.0 0.01 0.06 0.04 85 1009.8
20260904224558 80 28 0.0 0.0 0.01 0.06 0.04 85 1009.9
20260904224358 80 28 0.0 0.0 0.01 0.06 0.04 85 1009.8
20260904224259 80 28 0.0 0.0 0.01 0.06 0.04 84 1009.8
20260904224158 80 28 0.0 0.0 0.01 0.06 0.04 85 1009.8
20260904224058 80 28 0.0 0.0 0.01 0.06 0.04 85 1009.8
20260904224000 80 28 0.0 0.0 0.01 0.06 0.04 85 1009.8
20260904223859 80 28 0.0 0.0 0.01 0.06 0.04 85 1009.8
20260904223758 80 28 0.0 0.0 0.01 0.06 0.04 85 1009.8
20260904223658 80 28 0.0 0.0 0.01 0.06 0.04 85 1009.8
20260904223459 80 28 0.0 0.0 0.01 0.06 0.04 85 1009.7
20260904223258 80 28 0.0 0.0 0.01 0.06 0.04 84 1009.8
20260904223003 80 28 0.0 0.0 0.01 0.06 0.04 84 1009.8
20260904222901 80 28 0.0 0.0 0.01 0.06 0.04 84 1009.8
20260904222759 80 28 0.0 0.0 0.01 0.06 0.04 84 1009.8
20260904222658 80 28 0.0 0.0 0.01 0.06 0.04 84 1009.8
20260904222601 80 28 0.0 0.0 0.01 0.06 0.04 84 1009.9
20260904222459 80 28 0.0 0.0 0.01 0.06 0.04 84 1009.8
20260904222402 80 28 0.0 0.0 0.01 0.06 0.04 84 1009.8
20260904222259 81 28 0.0 0.0 0.01 0.06 0.04 84 1009.8
20260904222159 81 28 0.0 0.0 0.01 0.06 0.04 84 1009.8
20260904222058 81 28 0.0 0.0 0.01 0.06 0.04 83 1009.8
20260904221959 81 28 0.0 0.0 0.01 0.06 0.04 83 1009.8
20260904221857 81 28 0.0 0.0 0.01 0.06 0.04 84 1009.8
20260904221758 81 28 0.0 0.0 0.01 0.06 0.04 84 1009.8
20260904221657 81 28 0.0 0.0 0.01 0.06 0.04 85 1009.8
20260904221559 81 28 0.0 0.0 0.01 0.06 0.04 84 1009.8
20260904221358 81 28 0.0 0.0 0.01 0.06 0.04 82 1009.8
20260904221258 81 28 0.0 0.0 0.01 0.06 0.04 82 1009.8
20260904221159 81 28 0.0 0.0 0.01 0.06 0.04 82 1009.8
20260904221059 81 28 0.0 0.0 0.01 0.06 0.04 83 1009.8
20260904220959 81 28 0.0 0.0 0.01 0.06 0.04 82 1009.8
20260904220857 81 28 0.0 0.0 0.01 0.06 0.04 82 1009.8
20260904220758 81 28 0.0 0.0 0.01 0.06 0.04 82 1009.8
20260904220658 82 28 0.0 0.0 0.01 0.06 0.04 82 1009.8
20260904220559 82 28 0.0 0.0 0.01 0.06 0.04 82 1009.8
20260904220359 82 28 0.0 0.0 0.01 0.06 0.04 80 1009.8
20260904220259 82 28 0.0 0.0 0.01 0.06 0.04 80 1009.8